EW8144 Weather Reports


time (UTC)temp
F
wind
direction
speed
knots
gust
knots
rain 1hr
in
rain 24hr
in
rain mn
in
humidity
%
barometer
mb
20260506143852 81 215 4.3 15.6 0.00 0.00 0.00 34 1003.4
20260506143755 81 215 2.6 15.6 0.00 0.00 0.00 33 1003.4
20260506143701 81 199 2.6 15.6 0.00 0.00 0.00 33 1003.4
20260506143627 80 199 3.5 15.6 0.00 0.00 0.00 33 1002.3
20260506143553 81 199 5.2 15.6 0.00 0.00 0.00 33 1003.5
20260506143457 81 205 6.1 15.6 0.00 0.00 0.00 34 1003.4
20260506143359 81 227 9.6 15.6 0.00 0.00 0.00 34 1003.4
20260506143239 81 234 9.6 15.6 0.00 0.00 0.00 34 1003.4
20260506143134 81 246 7.0 12.2 0.00 0.00 0.00 34 1003.4
20260506143037 81 243 6.1 11.3 0.00 0.00 0.00 34 1003.4
20260506142940 81 232 7.8 11.3 0.00 0.00 0.00 33 1003.5
20260506142843 81 270 7.8 11.3 0.00 0.00 0.00 34 1003.4
20260506142737 81 251 7.0 11.3 0.00 0.00 0.00 33 1003.4
20260506142640 81 266 7.0 11.3 0.00 0.00 0.00 33 1003.4
20260506142541 81 227 7.8 11.3 0.00 0.00 0.00 33 1003.4
20260506142442 82 227 8.7 13.9 0.00 0.00 0.00 32 1003.4
20260506142339 82 277 8.7 13.9 0.00 0.00 0.00 32 1003.4
20260506142241 82 247 7.0 13.9 0.00 0.00 0.00 33 1003.5
20260506142143 82 245 4.3 13.9 0.00 0.00 0.00 34 1003.4
20260506142044 82 202 4.3 13.9 0.00 0.00 0.00 33 1003.5
20260506142015 81 254 3.5 13.9 0.00 0.00 0.00 32 1002.4
20260506141937 82 214 6.1 13.9 0.00 0.00 0.00 32 1003.5
20260506141818 82 213 7.0 13.9 0.00 0.00 0.00 33 1003.5
20260506141724 82 251 8.7 13.9 0.00 0.00 0.00 33 1003.5
20260506141627 82 212 7.8 13.9 0.00 0.00 0.00 33 1003.5
20260506141554 81 244 6.1 12.2 0.00 0.00 0.00 34 1002.5
20260506141517 82 261 5.2 10.4 0.00 0.00 0.00 34 1003.6
20260506141419 81 201 5.2 10.4 0.00 0.00 0.00 34 1003.6
20260506141321 81 222 5.2 10.4 0.00 0.00 0.00 34 1003.6
20260506141156 81 228 2.6 8.7 0.00 0.00 0.00 34 1003.6
20260506141127 80 213 1.7 8.7 0.00 0.00 0.00 33 1002.5
20260506141048 81 199 1.7 8.7 0.00 0.00 0.00 33 1003.5
20260506140955 81 189 2.6 8.7 0.00 0.00 0.00 34 1003.5
20260506140836 81 215 5.2 8.7 0.00 0.00 0.00 34 1003.6
20260506140739 80 213 7.0 8.7 0.00 0.00 0.00 34 1003.6
20260506140633 80 197 5.2 9.6 0.00 0.00 0.00 35 1003.6
20260506140534 80 231 3.5 7.0 0.00 0.00 0.00 33 1003.6
20260506140436 80 216 2.6 6.1 0.00 0.00 0.00 34 1003.7
20260506140343 80 198 2.6 8.7 0.00 0.00 0.00 34 1003.6
20260506140214 80 225 0.9 8.7 0.00 0.00 0.00 34 1003.6
20260506140118 79 232 0.0 8.7 0.00 0.00 0.00 34 1003.6
20260506135957 79 232 0.9 12.2 0.00 0.00 0.00 34 1003.6
20260506135859 79 232 2.6 12.2 0.00 0.00 0.00 36 1003.7
20260506135731 79 244 4.3 13.0 0.00 0.00 0.00 34 1003.7
20260506135610 79 218 6.1 17.4 0.00 0.00 0.00 34 1003.6
20260506135512 79 268 7.0 17.4 0.00 0.00 0.00 34 1003.6
20260506135416 80 268 7.0 17.4 0.00 0.00 0.00 36 1003.6
20260506135310 80 280 7.8 17.4 0.00 0.00 0.00 35 1003.6
20260506135211 80 280 8.7 17.4 0.00 0.00 0.00 35 1003.6
20260506135115 80 272 9.6 17.4 0.00 0.00 0.00 34 1003.7
20260506135015 80 292 9.6 17.4 0.00 0.00 0.00 34 1003.7
20260506134913 81 258 10.4 17.4 0.00 0.00 0.00 35 1003.6
20260506134754 81 255 12.2 17.4 0.00 0.00 0.00 34 1003.6
20260506134636 81 273 9.6 13.9 0.00 0.00 0.00 34 1003.7
20260506134536 81 256 8.7 13.0 0.00 0.00 0.00 35 1003.7
20260506134409 81 272 9.6 13.0 0.00 0.00 0.00 34 1003.7
20260506134312 81 243 9.6 13.0 0.00 0.00 0.00 35 1003.8
20260506134214 81 236 7.8 13.0 0.00 0.00 0.00 36 1003.8
20260506134120 81 241 7.8 10.4 0.00 0.00 0.00 33 1003.8
20260506134028 81 249 7.0 12.2 0.00 0.00 0.00 33 1002.7
20260506133952 81 273 7.0 12.2 0.00 0.00 0.00 34 1003.8
20260506133855 81 245 5.2 12.2 0.00 0.00 0.00 34 1003.8
20260506133758 81 216 4.3 12.2 0.00 0.00 0.00 35 1003.8
20260506133701 81 221 6.1 12.2 0.00 0.00 0.00 35 1003.8
20260506133611 81 211 5.2 12.2 0.00 0.00 0.00 35 1002.7
20260506133531 81 249 6.1 12.2 0.00 0.00 0.00 34 1003.7
20260506133439 81 237 6.1 12.2 0.00 0.00 0.00 34 1003.8
20260506133341 82 258 8.7 12.2 0.00 0.00 0.00 33 1003.8
20260506133244 82 268 7.8 12.2 0.00 0.00 0.00 33 1003.8
20260506133136 82 261 7.0 10.4 0.00 0.00 0.00 33 1003.7
20260506133038 82 310 6.1 10.4 0.00 0.00 0.00 33 1003.9
20260506132940 82 253 4.3 10.4 0.00 0.00 0.00 33 1003.9
20260506132843 82 253 2.6 8.7 0.00 0.00 0.00 34 1003.9
20260506132739 82 228 2.6 8.7 0.00 0.00 0.00 34 1004.0
20260506132641 82 245 2.6 8.7 0.00 0.00 0.00 34 1003.9
20260506132542 82 322 3.5 8.7 0.00 0.00 0.00 34 1004.0
20260506132445 81 209 4.3 8.7 0.00 0.00 0.00 34 1004.0
20260506132339 81 234 5.2 8.7 0.00 0.00 0.00 35 1004.1
20260506132048 81 160 1.7 7.0 0.00 0.00 0.00 35 1004.0
20260506131955 81 195 3.5 7.0 0.00 0.00 0.00 35 1004.0
20260506131847 80 132 4.3 7.0 0.00 0.00 0.00 34 1004.0
20260506131748 80 203 3.5 7.0 0.00 0.00 0.00 36 1004.1
20260506131651 80 80 3.5 7.0 0.00 0.00 0.00 38 1004.0
20260506131618 79 178 2.6 7.0 0.00 0.00 0.00 38 1002.9
20260506131542 80 219 3.5 7.8 0.00 0.00 0.00 35 1004.1
20260506131446 79 180 4.3 8.7 0.00 0.00 0.00 35 1004.1
20260506131332 79 186 3.5 9.6 0.00 0.00 0.00 35 1004.1
20260506131224 79 153 4.3 10.4 0.00 0.00 0.00 34 1004.1
20260506131128 80 139 3.5 10.4 0.00 0.00 0.00 35 1004.1
20260506131029 80 221 4.3 10.4 0.00 0.00 0.00 35 1004.1
20260506130930 80 224 5.2 10.4 0.00 0.00 0.00 35 1004.1
20260506130802 80 225 6.1 10.4 0.00 0.00 0.00 34 1004.1
20260506130648 80 224 7.0 10.4 0.00 0.00 0.00 35 1004.1
20260506130547 80 222 7.0 10.4 0.00 0.00 0.00 35 1004.1
20260506130449 80 215 7.0 10.4 0.00 0.00 0.00 35 1004.1
20260506130343 80 231 7.0 11.3 0.00 0.00 0.00 36 1004.1
20260506130246 80 234 5.2 9.6 0.00 0.00 0.00 35 1004.0
20260506130149 80 259 1.7 9.6 0.00 0.00 0.00 35 1002.9
20260506130040 81 230 2.6 9.6 0.00 0.00 0.00 34 1004.0
20260506125947 81 248 3.5 9.6 0.00 0.00 0.00 33 1004.1
20260506125851 81 275 4.3 9.6 0.00 0.00 0.00 34 1004.1
20260506125754 81 222 4.3 8.7 0.00 0.00 0.00 34 1004.1
20260506125647 81 218 5.2 8.7 0.00 0.00 0.00 35 1004.2
20260506125550 81 222 4.3 10.4 0.00 0.00 0.00 36 1004.1
20260506125433 80 268 0.9 12.2 0.00 0.00 0.00 34 1004.2
20260506125341 80 250 0.0 12.2 0.00 0.00 0.00 34 1004.1
20260506125232 80 250 1.7 12.2 0.00 0.00 0.00 33 1004.1
20260506125135 80 250 3.5 12.2 0.00 0.00 0.00 33 1004.1
20260506125036 80 250 5.2 12.2 0.00 0.00 0.00 34 1004.2
20260506125004 80 256 5.2 12.2 0.00 0.00 0.00 34 1003.1
20260506124800 80 255 7.8 12.2 0.00 0.00 0.00 33 1004.2
20260506124703 80 272 6.1 9.6 0.00 0.00 0.00 35 1004.2
20260506124547 80 228 4.3 8.7 0.00 0.00 0.00 33 1004.2
20260506124521 80 123 4.3 8.7 0.00 0.00 0.00 33 1003.2
20260506124441 80 122 4.3 8.7 0.00 0.00 0.00 33 1004.4
20260506124345 80 276 3.5 8.7 0.00 0.00 0.00 34 1004.3
20260506124249 80 199 3.5 8.7 0.00 0.00 0.00 35 1004.3
20260506124130 80 208 4.3 8.7 0.00 0.00 0.00 34 1004.3
20260506124105 80 218 4.3 8.7 0.00 0.00 0.00 35 1003.2
20260506124021 80 219 6.1 10.4 0.00 0.00 0.00 34 1004.3
20260506123845 80 247 7.8 10.4 0.00 0.00 0.00 34 1004.3
20260506123748 81 224 7.8 10.4 0.00 0.00 0.00 35 1004.2
20260506123651 81 253 5.2 10.4 0.00 0.00 0.00 36 1004.3
20260506123626 80 248 4.3 10.4 0.00 0.00 0.00 36 1003.3
20260506123522 81 203 6.1 10.4 0.00 0.00 0.00 36 1004.3
20260506123424 80 230 6.1 10.4 0.00 0.00 0.00 37 1004.4
20260506123328 80 227 7.0 10.4 0.00 0.00 0.00 36 1004.3
20260506123158 80 220 8.7 10.4 0.00 0.00 0.00 36 1004.4
20260506123104 80 226 7.8 11.3 0.00 0.00 0.00 37 1004.4
20260506122944 80 245 6.1 11.3 0.00 0.00 0.00 36 1004.4
20260506122846 80 253 6.1 11.3 0.00 0.00 0.00 36 1004.4
20260506122750 80 274 6.1 11.3 0.00 0.00 0.00 35 1004.4
20260506122643 80 263 7.8 11.3 0.00 0.00 0.00 33 1004.4
20260506122522 80 272 8.7 11.3 0.00 0.00 0.00 34 1004.4
20260506122429 80 257 5.2 10.4 0.00 0.00 0.00 34 1004.3
20260506122332 80 315 3.5 10.4 0.00 0.00 0.00 34 1004.4
20260506122202 80 304 4.3 10.4 0.00 0.00 0.00 35 1004.3
20260506122105 80 232 2.6 10.4 0.00 0.00 0.00 36 1004.4
20260506122006 80 218 1.7 10.4 0.00 0.00 0.00 36 1004.4
20260506121907 80 214 3.5 10.4 0.00 0.00 0.00 35 1004.5
20260506121800 79 261 5.2 10.4 0.00 0.00 0.00 34 1004.6
20260506121707 79 149 6.1 10.4 0.00 0.00 0.00 34 1004.6
20260506121610 79 135 6.1 10.4 0.00 0.00 0.00 34 1004.5
20260506121510 79 101 3.5 7.8 0.00 0.00 0.00 34 1004.4
20260506121413 80 128 0.9 7.8 0.00 0.00 0.00 34 1004.6
20260506121246 80 178 1.7 7.8 0.00 0.00 0.00 34 1004.6
20260506121148 79 176 3.5 7.8 0.00 0.00 0.00 33 1004.7
20260506121053 80 159 3.5 7.8 0.00 0.00 0.00 33 1004.7
20260506120956 80 244 3.5 7.8 0.00 0.00 0.00 33 1004.7
20260506120849 80 226 3.5 7.8 0.00 0.00 0.00 36 1004.7
20260506120730 80 238 4.3 7.8 0.00 0.00 0.00 36 1004.7
20260506120633 80 226 5.2 8.7 0.00 0.00 0.00 37 1004.7
20260506120550 79 207 5.2 8.7 0.00 0.00 0.00 37 1003.6
20260506120502 80 224 6.1 8.7 0.00 0.00 0.00 36 1004.6
20260506120408 80 275 4.3 7.0 0.00 0.00 0.00 35 1004.5
20260506120311 80 256 2.6 6.1 0.00 0.00 0.00 38 1004.5
20260506120211 80 290 1.7 4.3 0.00 0.00 0.00 36 1004.5
20260506120149 79 272 1.7 4.3 0.00 0.00 0.00 35 1003.5
20260506120104 80 280 1.7 4.3 0.00 0.00 0.00 34 1004.6
20260506115943 80 280 2.6 4.3 0.00 0.00 0.00 34 1004.6
20260506115707 80 222 0.9 8.7 0.00 0.00 0.00 33 1004.6
20260506115615 80 222 0.9 8.7 0.00 0.00 0.00 34 1004.6
20260506115517 80 222 1.7 8.7 0.00 0.00 0.00 36 1004.6
20260506115420 80 222 1.7 8.7 0.00 0.00 0.00 35 1004.6
20260506115314 80 222 1.7 8.7 0.00 0.00 0.00 38 1004.6
20260506115152 80 234 2.6 8.7 0.00 0.00 0.00 36 1004.7
20260506115053 80 246 3.5 8.7 0.00 0.00 0.00 36 1004.6
20260506114957 80 224 5.2 8.7 0.00 0.00 0.00 36 1004.6
20260506114842 80 236 6.1 8.7 0.00 0.00 0.00 36 1004.6
20260506114737 80 238 6.1 7.8 0.00 0.00 0.00 35 1004.6
20260506114641 80 263 4.3 7.0 0.00 0.00 0.00 35 1004.6
20260506114541 80 263 1.7 4.3 0.00 0.00 0.00 35 1004.6
20260506114445 80 340 0.9 10.4 0.00 0.00 0.00 35 1004.6
20260506114338 80 340 1.7 13.0 0.00 0.00 0.00 34 1004.6
20260506114223 80 123 1.7 13.0 0.00 0.00 0.00 34 1004.6
20260506114125 80 126 1.7 13.0 0.00 0.00 0.00 33 1004.7
20260506114048 80 126 0.9 13.0 0.00 0.00 0.00 33 1003.6
20260506113955 80 184 0.9 13.0 0.00 0.00 0.00 34 1004.7
20260506113855 80 268 0.9 13.0 0.00 0.00 0.00 34 1004.6
20260506113759 80 268 4.3 13.0 0.00 0.00 0.00 33 1004.7
20260506113701 81 274 8.7 13.0 0.00 0.00 0.00 33 1004.6
20260506113629 80 278 8.7 13.0 0.00 0.00 0.00 33 1003.6
20260506113537 81 259 7.0 13.0 0.00 0.00 0.00 34 1004.6
20260506113440 81 251 5.2 12.2 0.00 0.00 0.00 34 1004.6
20260506113342 81 238 7.8 12.2 0.00 0.00 0.00 33 1004.6
20260506113234 81 266 7.8 12.2 0.00 0.00 0.00 32 1004.6
20260506113136 81 240 8.7 12.2 0.00 0.00 0.00 33 1004.6
20260506113016 82 272 9.6 12.2 0.00 0.00 0.00 34 1004.6
20260506112908 82 297 8.7 12.2 0.00 0.00 0.00 32 1004.5
20260506112814 82 320 6.1 12.2 0.00 0.00 0.00 30 1004.4
20260506112717 82 32 4.3 8.7 0.00 0.00 0.00 31 1004.5
20260506112619 82 57 3.5 7.0 0.00 0.00 0.00 30 1004.6
20260506112543 81 91 2.6 7.0 0.00 0.00 0.00 31 1003.6
20260506112510 82 103 0.9 7.0 0.00 0.00 0.00 30 1004.6
20260506112350 82 75 0.9 7.0 0.00 0.00 0.00 30 1004.7
20260506112230 82 75 2.6 7.8 0.00 0.00 0.00 30 1004.7
20260506112128 82 61 1.7 7.8 0.00 0.00 0.00 31 1004.7
20260506112028 82 238 2.6 10.4 0.00 0.00 0.00 32 1004.7
20260506111928 82 238 4.3 10.4 0.00 0.00 0.00 31 1004.8
20260506111812 82 276 4.3 10.4 0.00 0.00 0.00 31 1004.8
20260506111705 82 236 3.5 10.4 0.00 0.00 0.00 32 1004.8
20260506111609 82 234 3.5 10.4 0.00 0.00 0.00 32 1004.8
20260506111512 81 214 4.3 10.4 0.00 0.00 0.00 33 1004.9
20260506111354 81 179 5.2 10.4 0.00 0.00 0.00 32 1004.9
20260506111247 81 265 7.0 10.4 0.00 0.00 0.00 32 1005.0
20260506111128 81 239 7.0 9.6 0.00 0.00 0.00 32 1004.9
20260506111007 81 247 6.1 9.6 0.00 0.00 0.00 33 1005.0
20260506110838 81 253 2.6 8.7 0.00 0.00 0.00 34 1005.0
20260506110618 80 353 0.9 5.2 0.00 0.00 0.00 34 1005.0
20260506110518 80 349 0.0 7.0 0.00 0.00 0.00 33 1005.0
20260506110413 80 349 0.0 7.0 0.00 0.00 0.00 33 1005.0
20260506110315 80 349 1.7 7.0 0.00 0.00 0.00 32 1005.1
20260506110217 80 349 2.6 7.0 0.00 0.00 0.00 32 1005.0
20260506110120 80 353 3.5 8.7 0.00 0.00 0.00 33 1005.0
20260506110057 80 326 2.6 9.6 0.00 0.00 0.00 32 1003.9
20260506110012 80 33 3.5 9.6 0.00 0.00 0.00 32 1005.0
20260506105919 80 294 2.6 9.6 0.00 0.00 0.00 33 1005.1
20260506105822 81 289 2.6 9.6 0.00 0.00 0.00 33 1005.1
20260506105723 81 289 3.5 9.6 0.00 0.00 0.00 32 1005.2
20260506105656 80 289 3.5 9.6 0.00 0.00 0.00 34 1004.1
20260506105553 81 249 3.5 9.6 0.00 0.00 0.00 33 1005.1
20260506105456 81 257 4.3 9.6 0.00 0.00 0.00 33 1005.2
20260506105359 81 294 6.1 9.6 0.00 0.00 0.00 34 1005.1
20260506105305 81 272 5.2 9.6 0.00 0.00 0.00 34 1005.1
20260506105155 80 186 4.3 7.8 0.00 0.00 0.00 35 1005.2
20260506105054 80 195 2.6 7.0 0.00 0.00 0.00 35 1005.2
20260506104956 80 107 1.7 7.0 0.00 0.00 0.00 36 1005.2
20260506104857 80 219 1.7 7.0 0.00 0.00 0.00 36 1005.3
20260506104730 80 219 3.5 9.6 0.00 0.00 0.00 38 1005.3
20260506104637 80 218 4.3 9.6 0.00 0.00 0.00 39 1005.3
20260506104600 79 218 3.5 9.6 0.00 0.00 0.00 39 1004.2
20260506104527 79 255 3.5 9.6 0.00 0.00 0.00 37 1005.3
20260506104409 79 239 1.7 9.6 0.00 0.00 0.00 37 1005.4
20260506104311 79 222 1.7 9.6 0.00 0.00 0.00 36 1005.3
20260506104212 79 224 1.7 9.6 0.00 0.00 0.00 37 1005.3
20260506104143 79 224 1.7 9.6 0.00 0.00 0.00 37 1004.3
20260506104041 79 238 5.2 9.6 0.00 0.00 0.00 38 1005.4
20260506103944 79 236 6.1 10.4 0.00 0.00 0.00 38 1005.3
20260506103852 79 250 6.1 9.6 0.00 0.00 0.00 39 1005.4
20260506103734 79 251 7.0 9.6 0.00 0.00 0.00 39 1005.4
20260506103649 78 253 7.0 9.6 0.00 0.00 0.00 39 1004.3
20260506103606 79 243 7.0 9.6 0.00 0.00 0.00 40 1005.4
20260506103504 79 247 4.3 6.1 0.00 0.00 0.00 39 1005.4
20260506103347 79 284 3.5 5.2 0.00 0.00 0.00 38 1005.4
20260506103236 78 326 3.5 5.2 0.00 0.00 0.00 39 1005.4
20260506103142 78 268 1.7 5.2 0.00 0.00 0.00 39 1005.4
20260506103042 78 331 1.7 5.2 0.00 0.00 0.00 36 1005.4
20260506102945 78 331 0.9 5.2 0.00 0.00 0.00 36 1005.4
20260506102848 78 327 0.9 5.2 0.00 0.00 0.00 37 1005.4
20260506102742 78 85 2.6 5.2 0.00 0.00 0.00 37 1005.4
20260506102644 78 85 3.5 5.2 0.00 0.00 0.00 39 1005.4
20260506102531 78 70 1.7 5.2 0.00 0.00 0.00 39 1005.4
20260506102508 78 99 0.9 6.1 0.00 0.00 0.00 41 1004.3
20260506102423 78 24 0.9 6.1 0.00 0.00 0.00 41 1005.4
20260506102325 78 82 1.7 6.1 0.00 0.00 0.00 41 1005.5
20260506102227 78 67 1.7 6.1 0.00 0.00 0.00 41 1005.5
20260506102159 77 337 1.7 6.1 0.00 0.00 0.00 41 1004.4
20260506102121 78 57 2.6 6.1 0.00 0.00 0.00 41 1005.6
20260506102022 78 55 1.7 7.0 0.00 0.00 0.00 42 1005.6
20260506101904 78 16 2.6 7.0 0.00 0.00 0.00 42 1005.7
20260506101811 78 42 2.6 7.0 0.00 0.00 0.00 43 1005.8
20260506101705 77 153 2.6 7.0 0.00 0.00 0.00 41 1005.7
20260506101606 77 115 2.6 7.8 0.00 0.00 0.00 41 1005.8
20260506101505 77 107 3.5 7.8 0.00 0.00 0.00 41 1005.8
20260506101408 77 93 3.5 7.8 0.00 0.00 0.00 42 1005.7
20260506101303 77 72 3.5 7.8 0.00 0.00 0.00 42 1005.7
20260506101210 77 119 2.6 7.8 0.00 0.00 0.00 41 1005.7
20260506101111 77 95 2.6 7.8 0.00 0.00 0.00 41 1005.7
20260506101011 77 101 3.5 7.8 0.00 0.00 0.00 41 1005.7
20260506100904 77 52 3.5 7.8 0.00 0.00 0.00 42 1005.8
20260506100807 77 102 1.7 7.8 0.00 0.00 0.00 44 1005.8
20260506100649 77 120 1.7 5.2 0.00 0.00 0.00 42 1005.8
20260506100550 77 82 1.7 7.0 0.00 0.00 0.00 41 1005.8
20260506100528 76 82 0.9 7.0 0.00 0.00 0.00 42 1004.7
20260506100448 77 69 1.7 7.0 0.00 0.00 0.00 44 1005.9
20260506100329 77 114 3.5 7.0 0.00 0.00 0.00 43 1005.9
20260506100231 77 105 4.3 7.8 0.00 0.00 0.00 43 1005.9
20260506100111 77 91 3.5 11.3 0.00 0.00 0.00 42 1005.9
20260506100003 77 66 2.6 11.3 0.00 0.00 0.00 42 1005.9
20260506095737 76 94 4.3 11.3 0.00 0.00 0.00 45 1006.0
20260506095645 76 95 4.3 11.3 0.00 0.00 0.00 45 1006.0
20260506095618 76 70 4.3 11.3 0.00 0.00 0.00 45 1004.9
20260506095536 76 92 5.2 11.3 0.00 0.00 0.00 45 1006.0
20260506095438 76 109 6.1 11.3 0.00 0.00 0.00 44 1006.0
20260506095341 76 94 7.0 11.3 0.00 0.00 0.00 45 1006.1
20260506095233 76 93 7.0 11.3 0.00 0.00 0.00 45 1006.0
20260506095136 76 57 6.1 10.4 0.00 0.00 0.00 47 1006.1
20260506095041 76 117 5.2 10.4 0.00 0.00 0.00 47 1006.0
20260506094923 76 103 5.2 12.2 0.00 0.00 0.00 45 1006.0
20260506094816 76 344 4.3 12.2 0.00 0.00 0.00 45 1006.0
20260506094719 76 89 5.2 12.2 0.00 0.00 0.00 45 1006.1
20260506094619 76 58 6.1 12.2 0.00 0.00 0.00 47 1006.1
20260506094501 76 74 5.2 12.2 0.00 0.00 0.00 46 1006.1
20260506094335 76 110 6.1 12.2 0.00 0.00 0.00 45 1006.1
20260506094219 76 70 7.8 12.2 0.00 0.00 0.00 46 1006.2
20260506094119 76 112 8.7 12.2 0.00 0.00 0.00 47 1006.2
20260506094001 76 94 7.8 12.2 0.00 0.00 0.00 47 1006.2
20260506093832 76 78 5.2 10.4 0.00 0.00 0.00 47 1006.3
20260506093735 75 110 3.5 10.4 0.00 0.00 0.00 48 1006.3
20260506093639 75 39 4.3 10.4 0.00 0.00 0.00 47 1006.3
20260506093544 75 85 6.1 10.4 0.00 0.00 0.00 48 1006.4
20260506093447 75 80 5.2 10.4 0.00 0.00 0.00 47 1006.4
20260506093342 75 70 5.2 10.4 0.00 0.00 0.00 48 1006.4
20260506093243 75 106 7.0 10.4 0.00 0.00 0.00 48 1006.4
20260506093146 75 82 7.0 10.4 0.00 0.00 0.00 49 1006.5
20260506093047 75 111 7.0 10.4 0.00 0.00 0.00 48 1006.5
20260506093031 75 47 6.1 10.4 0.00 0.00 0.00 48 1005.4
20260506092942 75 88 6.1 12.2 0.00 0.00 0.00 48 1006.5
20260506092827 75 55 6.1 12.2 0.00 0.00 0.00 48 1006.5
20260506092731 75 109 6.1 12.2 0.00 0.00 0.00 48 1006.5
20260506092650 74 89 5.2 12.2 0.00 0.00 0.00 49 1005.5
20260506092433 75 55 3.5 12.2 0.00 0.00 0.00 50 1006.5
20260506092334 75 101 4.3 13.0 0.00 0.00 0.00 51 1006.6
20260506092227 75 68 7.0 13.0 0.00 0.00 0.00 50 1006.6
20260506092114 75 116 8.7 13.0 0.00 0.00 0.00 50 1006.6
20260506092015 74 74 7.0 13.0 0.00 0.00 0.00 49 1006.6
20260506091916 74 105 7.0 13.0 0.00 0.00 0.00 49 1006.6
20260506091810 74 95 7.0 13.0 0.00 0.00 0.00 50 1006.6
20260506091712 74 88 7.8 13.0 0.00 0.00 0.00 49 1006.7
20260506091612 74 102 7.8 13.0 0.00 0.00 0.00 50 1006.6
20260506091454 74 78 7.0 11.3 0.00 0.00 0.00 52 1006.6
20260506091331 74 117 7.8 10.4 0.00 0.00 0.00 50 1006.8
20260506091234 74 104 7.0 10.4 0.00 0.00 0.00 52 1006.7
20260506091138 74 89 3.5 10.4 0.00 0.00 0.00 51 1006.7
20260506091053 73 105 2.6 10.4 0.00 0.00 0.00 50 1005.7
20260506091008 74 55 4.3 10.4 0.00 0.00 0.00 50 1006.8
20260506090908 74 54 6.1 10.4 0.00 0.00 0.00 50 1006.8
20260506090809 74 71 6.1 10.4 0.00 0.00 0.00 50 1006.8
20260506090717 74 72 4.3 9.6 0.00 0.00 0.00 50 1006.9
20260506090652 73 68 3.5 9.6 0.00 0.00 0.00 50 1005.9
20260506090607 74 89 3.5 12.2 0.00 0.00 0.00 51 1006.9
20260506090428 74 84 5.2 12.2 0.00 0.00 0.00 50 1007.0
20260506090330 74 101 6.1 12.2 0.00 0.00 0.00 50 1006.9
20260506090213 74 72 7.0 12.2 0.00 0.00 0.00 51 1007.0
20260506090150 73 101 6.1 12.2 0.00 0.00 0.00 51 1005.9
20260506090104 74 103 6.1 12.2 0.00 0.00 0.00 51 1007.0
20260506090010 74 102 4.3 12.2 0.00 0.00 0.00 51 1006.9
20260506085914 74 68 6.1 12.2 0.00 0.00 0.00 50 1006.9
20260506085818 74 97 6.1 12.2 0.00 0.00 0.00 51 1006.9
20260506085712 73 108 6.1 9.6 0.00 0.00 0.00 52 1006.8
20260506085615 73 70 6.1 9.6 0.00 0.00 0.00 52 1006.9
20260506085517 73 92 4.3 8.7 0.00 0.00 0.00 53 1006.9
20260506085349 73 95 4.3 8.7 0.00 0.00 0.00 52 1007.0
20260506085257 73 54 4.3 8.7 0.00 0.00 0.00 52 1007.0
20260506085158 73 105 5.2 8.7 0.00 0.00 0.00 51 1007.0
20260506084921 73 106 3.5 7.0 0.00 0.00 0.00 52 1007.2
20260506084801 73 87 3.5 7.0 0.00 0.00 0.00 52 1007.2
20260506084704 73 53 2.6 7.0 0.00 0.00 0.00 53 1007.2
20260506084606 73 96 2.6 7.0 0.00 0.00 0.00 52 1007.1
20260506084549 72 85 2.6 7.0 0.00 0.00 0.00 52 1006.1
20260506084503 73 88 3.5 7.0 0.00 0.00 0.00 51 1007.1
20260506084405 73 71 4.3 7.0 0.00 0.00 0.00 51 1007.2
20260506084303 73 86 4.3 8.7 0.00 0.00 0.00 52 1007.2
20260506084204 73 95 2.6 8.7 0.00 0.00 0.00 53 1007.2
20260506084114 72 53 1.7 8.7 0.00 0.00 0.00 53 1006.1
20260506084035 73 72 0.9 8.7 0.00 0.00 0.00 52 1007.2
20260506083937 73 355 1.7 8.7 0.00 0.00 0.00 52 1007.2
20260506083844 73 47 3.5 8.7 0.00 0.00 0.00 52 1007.3
20260506083725 73 58 5.2 8.7 0.00 0.00 0.00 52 1007.3
20260506083633 73 109 5.2 8.7 0.00 0.00 0.00 52 1006.1
20260506083556 73 86 6.1 8.7 0.00 0.00 0.00 52 1007.3
20260506083437 73 92 4.3 8.7 0.00 0.00 0.00 53 1007.3
20260506083340 73 81 2.6 7.8 0.00 0.00 0.00 52 1007.3
20260506083220 73 34 4.3 7.8 0.00 0.00 0.00 52 1007.3
20260506083152 73 80 4.3 7.8 0.00 0.00 0.00 52 1006.2
20260506083116 73 82 4.3 7.8 0.00 0.00 0.00 52 1007.3
20260506083020 73 81 4.3 7.0 0.00 0.00 0.00 53 1007.3
20260506082900 73 94 3.5 7.0 0.00 0.00 0.00 53 1007.3
20260506082802 73 82 2.6 6.1 0.00 0.00 0.00 53 1007.3
20260506082655 73 103 1.7 6.1 0.00 0.00 0.00 53 1007.3
20260506082555 73 94 1.7 6.1 0.00 0.00 0.00 53 1007.3
20260506082458 73 94 1.7 6.1 0.00 0.00 0.00 53 1007.3
20260506082404 73 94 2.6 6.1 0.00 0.00 0.00 54 1007.3
20260506082309 73 99 2.6 6.1 0.00 0.00 0.00 53 1007.3
20260506082157 73 52 3.5 6.1 0.00 0.00 0.00 53 1007.3
20260506082058 73 93 2.6 6.1 0.00 0.00 0.00 54 1007.3
20260506082001 73 109 1.7 4.3 0.00 0.00 0.00 53 1007.4
20260506081905 72 105 0.9 4.3 0.00 0.00 0.00 54 1007.4
20260506081735 72 105 0.9 7.0 0.00 0.00 0.00 54 1007.4
20260506081641 72 105 1.7 7.0 0.00 0.00 0.00 53 1007.4
20260506081542 72 105 1.7 7.0 0.00 0.00 0.00 54 1007.4
20260506081508 72 79 0.9 7.0 0.00 0.00 0.00 55 1006.3
20260506081436 72 99 0.0 7.0 0.00 0.00 0.00 55 1007.4
20260506081318 72 99 0.9 7.0 0.00 0.00 0.00 55 1007.4
20260506081219 72 99 1.7 7.0 0.00 0.00 0.00 54 1007.4
20260506081057 72 93 3.5 7.0 0.00 0.00 0.00 54 1007.4
20260506081003 72 109 3.5 7.0 0.00 0.00 0.00 55 1007.4
20260506080857 72 88 2.6 5.2 0.00 0.00 0.00 56 1007.4
20260506080800 72 59 2.6 5.2 0.00 0.00 0.00 55 1007.4
20260506080702 72 49 1.7 5.2 0.00 0.00 0.00 57 1007.4
20260506080626 71 82 0.9 4.3 0.00 0.00 0.00 57 1006.3
20260506080554 72 349 0.9 3.5 0.00 0.00 0.00 57 1007.4
20260506080436 71 356 0.0 3.5 0.00 0.00 0.00 58 1007.4
20260506080338 71 72 0.9 3.5 0.00 0.00 0.00 58 1007.5
20260506080245 71 95 0.9 3.5 0.00 0.00 0.00 57 1007.5
20260506080146 71 95 0.9 3.5 0.00 0.00 0.00 58 1007.5
20260506080119 71 27 0.0 2.6 0.00 0.00 0.00 58 1006.4
20260506073455 68 6 0.0 4.3 0.00 0.00 0.00 65 1008.0
20260506073357 68 6 0.9 4.3 0.00 0.00 0.00 65 1008.0
20260506073306 68 6 0.9 4.3 0.00 0.00 0.00 63 1008.0
20260506073153 68 50 0.9 4.3 0.00 0.00 0.00 64 1008.0
20260506073032 67 53 1.7 4.3 0.00 0.00 0.00 64 1007.9
20260506072936 67 62 1.7 4.3 0.00 0.00 0.00 64 1008.0
20260506072807 67 6 2.6 4.3 0.00 0.00 0.00 65 1008.0
20260506072709 67 351 2.6 4.3 0.00 0.00 0.00 64 1008.1
20260506072615 67 309 2.6 4.3 0.00 0.00 0.00 64 1008.1
20260506072508 67 309 1.7 4.3 0.00 0.00 0.00 64 1008.1
20260506072410 66 309 1.7 4.3 0.00 0.00 0.00 65 1008.1
20260506072305 66 276 1.7 4.3 0.00 0.00 0.00 66 1008.2
20260506072147 66 272 1.7 4.3 0.00 0.00 0.00 65 1008.2
20260506072046 66 279 1.7 4.3 0.00 0.00 0.00 65 1008.2
20260506071949 66 279 2.6 4.3 0.00 0.00 0.00 65 1008.2
20260506071847 66 261 1.7 4.3 0.00 0.00 0.00 66 1008.2
20260506071728 66 314 1.7 4.3 0.00 0.00 0.00 66 1008.2
20260506071610 66 344 2.6 4.3 0.00 0.00 0.00 66 1008.2
20260506071512 66 320 2.6 4.3 0.00 0.00 0.00 66 1008.2
20260506071405 66 315 2.6 6.1 0.00 0.00 0.00 67 1008.2
20260506071308 66 336 2.6 6.1 0.00 0.00 0.00 67 1008.2
20260506071133 65 315 2.6 6.1 0.00 0.00 0.00 67 1008.3
20260506071106 65 311 1.7 6.1 0.00 0.00 0.00 67 1007.2
20260506071023 65 297 2.6 6.1 0.00 0.00 0.00 68 1008.3
20260506070758 65 285 3.5 6.1 0.00 0.00 0.00 68 1008.3
20260506070652 65 262 3.5 6.1 0.00 0.00 0.00 68 1008.3
20260506070532 65 259 3.5 6.1 0.00 0.00 0.00 68 1008.3
20260506070434 65 299 3.5 6.1 0.00 0.00 0.00 68 1008.3
20260506070320 65 299 3.5 6.1 0.00 0.00 0.00 68 1008.4
20260506070213 65 277 3.5 6.1 0.00 0.00 0.00 68 1008.4
20260506070112 65 316 3.5 4.3 0.00 0.00 0.00 69 1008.4
20260506062505 62 263 2.6 3.5 0.00 0.00 0.00 74 1008.8
20260506062409 62 263 2.6 3.5 0.00 0.00 0.00 74 1008.8
20260506062251 62 263 2.6 3.5 0.00 0.00 0.00 74 1008.8
20260506062154 62 263 1.7 3.5 0.00 0.00 0.00 75 1008.8
20260506062107 61 264 1.7 3.5 0.00 0.00 0.00 75 1007.8
20260506062024 62 263 1.7 2.6 0.00 0.00 0.00 75 1008.8
20260506061620 62 263 1.7 3.5 0.00 0.00 0.00 75 1008.9
20260506061520 61 264 0.9 3.5 0.00 0.00 0.00 75 1009.0
20260506061401 61 263 0.9 3.5 0.00 0.00 0.00 76 1009.0
20260506061236 61 264 1.7 3.5 0.00 0.00 0.00 75 1009.0
20260506061116 61 264 1.7 3.5 0.00 0.00 0.00 76 1009.0
20260506061016 61 264 1.7 3.5 0.00 0.00 0.00 76 1009.0
20260506060920 61 263 1.7 3.5 0.00 0.00 0.00 77 1009.0
20260506060813 61 263 1.7 3.5 0.00 0.00 0.00 79 1009.0
20260506060717 61 263 1.7 3.5 0.00 0.00 0.00 79 1009.0
20260506060622 61 264 1.7 3.5 0.00 0.00 0.00 78 1009.0
20260506060525 61 264 1.7 3.5 0.00 0.00 0.00 78 1008.9
20260506060419 61 263 1.7 3.5 0.00 0.00 0.00 78 1008.9
20260506060321 61 263 2.6 3.5 0.00 0.00 0.00 78 1008.9
20260506060222 60 263 2.6 3.5 0.00 0.00 0.00 79 1008.9
20260506060104 60 263 1.7 3.5 0.00 0.00 0.00 78 1008.9
20260506051415 55 263 0.0 0.0 0.00 0.00 0.00 89 1008.9
20260506051317 55 263 0.0 0.0 0.00 0.00 0.00 89 1008.8
20260506051219 55 263 0.0 0.0 0.00 0.00 0.00 90 1008.8
20260506051153 55 263 0.0 0.0 0.00 0.00 0.00 90 1007.8
20260506050941 55 263 0.0 0.0 0.00 0.00 0.00 90 1008.8
20260506050844 55 263 0.0 0.9 0.00 0.00 0.00 90 1008.9
20260506050721 55 263 0.0 0.9 0.00 0.00 0.00 90 1009.0
20260506050623 55 263 0.0 0.9 0.00 0.00 0.00 90 1009.0
20260506050502 55 263 0.0 0.9 0.00 0.00 0.00 90 1009.1
20260506050406 54 263 0.0 0.9 0.00 0.00 0.00 90 1009.1
20260506050259 54 263 0.0 0.9 0.00 0.00 0.00 90 1009.1
20260506050203 54 263 0.0 0.9 0.00 0.00 0.00 90 1009.1
20260506045115 54 263 0.0 0.0 0.00 0.00 0.00 88 1009.0
20260506045032 53 263 0.0 0.0 0.00 0.00 0.00 88 1008.0
20260506044948 54 263 0.0 0.0 0.00 0.00 0.00 88 1009.0
20260506044852 53 263 0.0 0.0 0.00 0.00 0.00 88 1008.9
20260506044756 53 263 0.0 0.0 0.00 0.00 0.00 88 1008.9
20260506044716 53 263 0.0 0.0 0.00 0.00 0.00 88 1007.9
20260506044701 53 263 0.0 0.0 0.00 0.00 0.00 88 1008.9
20260506044556 53 263 0.0 0.0 0.00 0.00 0.00 88 1008.9
20260506044500 53 263 0.0 0.0 0.00 0.00 0.00 88 1008.9
20260506044343 53 263 0.0 0.0 0.00 0.00 0.00 87 1008.9
20260506044246 53 263 0.0 0.0 0.00 0.00 0.00 87 1008.9
20260506044138 53 263 0.0 0.0 0.00 0.00 0.00 87 1008.9
20260506044037 53 263 0.0 0.0 0.00 0.00 0.00 87 1008.9
20260506043944 53 263 0.0 0.0 0.00 0.00 0.00 87 1009.0
20260506043827 53 263 0.0 0.0 0.00 0.00 0.00 87 1009.0
20260506043722 53 263 0.0 0.0 0.00 0.00 0.00 87 1009.0
20260506043413 54 263 0.0 0.0 0.00 0.00 0.00 86 1009.0
20260506043317 54 263 0.0 0.0 0.00 0.00 0.00 86 1009.0
20260506043147 54 263 0.0 0.0 0.00 0.00 0.00 86 1009.0
20260506043052 54 263 0.0 0.0 0.00 0.00 0.00 86 1009.0
20260506042955 54 263 0.0 0.0 0.00 0.00 0.00 85 1009.0
20260506042859 54 263 0.0 0.0 0.00 0.00 0.00 85 1009.0
20260506042752 54 263 0.0 0.0 0.00 0.00 0.00 85 1009.0
20260506042655 54 263 0.0 0.0 0.00 0.00 0.00 85 1009.0
20260506042556 54 263 0.0 0.0 0.00 0.00 0.00 85 1009.0
20260506042417 54 263 0.0 0.0 0.00 0.00 0.00 85 1008.9
20260506042253 54 263 0.0 0.0 0.00 0.00 0.00 85 1009.0
20260506042151 54 263 0.0 0.0 0.00 0.00 0.00 85 1008.9
20260506042032 54 263 0.0 0.0 0.00 0.00 0.00 85 1009.0
20260506041851 54 263 0.0 0.0 0.00 0.00 0.00 85 1009.0
20260506041746 54 263 0.0 0.0 0.00 0.00 0.00 85 1009.0
20260506041650 54 263 0.0 0.0 0.00 0.00 0.00 85 1008.9
20260506041555 54 263 0.0 0.0 0.00 0.00 0.00 85 1008.9
20260506041457 54 263 0.0 0.0 0.00 0.00 0.00 85 1009.0
20260506041401 54 263 0.0 0.0 0.00 0.00 0.00 85 1009.0
20260506041254 54 263 0.0 0.0 0.00 0.00 0.00 85 1009.0
20260506041133 54 263 0.0 0.0 0.00 0.00 0.00 86 1009.0
20260506041014 54 263 0.0 0.0 0.00 0.00 0.00 86 1009.0
20260506040846 54 263 0.0 0.0 0.00 0.00 0.00 86 1009.0
20260506040752 54 263 0.0 0.0 0.00 0.00 0.00 86 1008.9
20260506040656 54 263 0.0 0.0 0.00 0.00 0.00 85 1008.9
20260506040557 54 263 0.0 0.0 0.00 0.00 0.00 85 1008.9
20260506040501 54 263 0.0 0.0 0.00 0.00 0.00 85 1008.9
20260506040353 54 263 0.0 0.0 0.00 0.00 0.00 85 1008.8
20260506040252 54 263 0.0 0.0 0.00 0.00 0.00 85 1008.9
20260506040157 54 263 0.0 0.0 0.00 0.00 0.00 85 1008.9
20260506040118 54 263 0.0 0.0 0.00 0.00 0.00 85 1007.9
20260506040030 54 263 0.0 0.0 0.00 0.00 0.00 85 1008.8
20260506035934 54 263 0.0 0.0 0.00 0.00 0.00 85 1008.8
20260506035816 54 263 0.0 0.0 0.00 0.00 0.00 85 1008.8
20260506035709 54 263 0.0 0.0 0.00 0.00 0.00 85 1008.8
20260506035611 54 263 0.0 0.0 0.00 0.00 0.00 84 1008.8
20260506035455 54 263 0.0 0.0 0.00 0.00 0.00 84 1008.8
20260506035358 54 263 0.0 0.0 0.00 0.00 0.00 84 1008.8
20260506035230 55 263 0.0 0.0 0.00 0.00 0.00 85 1008.8
20260506035134 55 263 0.0 0.0 0.00 0.00 0.00 85 1008.8
20260506035035 55 263 0.0 0.0 0.00 0.00 0.00 85 1008.8
20260506034939 55 263 0.0 0.0 0.00 0.00 0.00 85 1008.8
20260506034751 55 263 0.0 0.0 0.00 0.00 0.00 86 1008.7
20260506034659 55 263 0.0 0.0 0.00 0.00 0.00 86 1008.8
20260506034558 55 263 0.0 0.0 0.00 0.00 0.00 86 1008.8
20260506034438 55 263 0.0 0.9 0.00 0.00 0.00 86 1008.7
20260506034332 55 263 0.0 1.7 0.00 0.00 0.00 86 1008.8
20260506034232 55 263 0.0 1.7 0.00 0.00 0.00 86 1008.8
20260506034113 55 263 0.0 1.7 0.00 0.00 0.00 86 1008.7
20260506034019 55 263 0.0 1.7 0.00 0.00 0.00 85 1008.7
20260506033913 55 263 0.0 1.7 0.00 0.00 0.00 85 1008.7
20260506033755 55 263 0.0 1.7 0.00 0.00 0.00 85 1008.7
20260506033700 55 263 0.0 3.5 0.00 0.00 0.00 85 1008.7
20260506033540 55 263 0.9 3.5 0.00 0.00 0.00 84 1008.7
20260506033415 55 263 0.9 3.5 0.00 0.00 0.00 84 1008.6
20260506033318 55 263 0.9 3.5 0.00 0.00 0.00 84 1008.6
20260506033222 55 263 0.9 3.5 0.00 0.00 0.00 84 1008.6
20260506033127 55 263 0.0 3.5 0.00 0.00 0.00 83 1008.6
20260506033035 54 263 0.0 3.5 0.00 0.00 0.00 83 1007.6
20260506032958 55 263 0.9 3.5 0.00 0.00 0.00 83 1008.6
20260506032900 55 263 1.7 3.5 0.00 0.00 0.00 83 1008.5
20260506032803 55 264 1.7 3.5 0.00 0.00 0.00 83 1008.5
20260506032706 55 264 1.7 3.5 0.00 0.00 0.00 83 1008.6
20260506032617 55 264 0.9 3.5 0.00 0.00 0.00 83 1007.6
20260506032541 55 264 0.9 3.5 0.00 0.00 0.00 83 1008.6
20260506032443 55 264 1.7 3.5 0.00 0.00 0.00 83 1008.6
20260506032325 55 264 2.6 3.5 0.00 0.00 0.00 83 1008.6
20260506032229 55 264 1.7 3.5 0.00 0.00 0.00 83 1008.6
20260506032157 55 264 0.9 3.5 0.00 0.00 0.00 83 1007.6
20260506032123 55 265 0.9 3.5 0.00 0.00 0.00 83 1008.6
20260506032024 55 265 0.0 1.7 0.00 0.00 0.00 83 1008.6
20260506031927 55 265 0.0 1.7 0.00 0.00 0.00 83 1008.6
20260506031814 55 265 0.0 1.7 0.00 0.00 0.00 83 1008.6
20260506031707 56 265 0.0 1.7 0.00 0.00 0.00 83 1008.5
20260506031607 56 265 0.0 2.6 0.00 0.00 0.00 83 1008.6
20260506031506 56 265 0.0 2.6 0.00 0.00 0.00 83 1008.6
20260506031409 56 265 0.0 2.6 0.00 0.00 0.00 83 1008.7
20260506031304 56 265 0.0 2.6 0.00 0.00 0.00 83 1008.6
20260506031208 56 265 0.0 2.6 0.00 0.00 0.00 83 1008.6
20260506031112 56 265 0.0 2.6 0.00 0.00 0.00 83 1008.6
20260506031010 56 265 0.0 2.6 0.00 0.00 0.00 83 1008.6
20260506030905 56 265 0.9 2.6 0.00 0.00 0.00 83 1008.6
20260506030747 56 265 0.9 2.6 0.00 0.00 0.00 83 1008.6
20260506030651 56 265 0.0 0.9 0.00 0.00 0.00 82 1008.6
20260506030553 56 265 0.0 0.0 0.00 0.00 0.00 82 1008.6
20260506030528 55 265 0.0 0.0 0.00 0.00 0.00 82 1007.6
20260506030432 56 265 0.0 0.0 0.00 0.00 0.00 82 1008.6
20260506030336 56 265 0.0 0.0 0.00 0.00 0.00 82 1008.6
20260506030239 56 265 0.0 0.0 0.00 0.00 0.00 82 1008.6
20260506030131 56 265 0.0 0.0 0.00 0.00 0.00 82 1008.7
20260506030009 56 265 0.0 0.0 0.00 0.00 0.00 82 1008.7
20260506025913 56 265 0.0 0.0 0.00 0.00 0.00 82 1008.7
20260506025822 56 265 0.0 0.0 0.00 0.00 0.00 82 1008.7
20260506025714 56 265 0.0 0.0 0.00 0.00 0.00 82 1008.7
20260506025615 56 265 0.0 0.0 0.00 0.00 0.00 82 1008.7
20260506025320 56 265 0.0 0.0 0.00 0.00 0.00 82 1008.7
20260506025200 56 265 0.0 0.0 0.00 0.00 0.00 82 1008.7
20260506025059 56 265 0.0 0.0 0.00 0.00 0.00 82 1008.8
20260506025007 56 265 0.0 0.9 0.00 0.00 0.00 82 1008.8
20260506024841 56 265 0.0 1.7 0.00 0.00 0.00 82 1008.8
20260506024745 56 265 0.0 2.6 0.00 0.00 0.00 82 1008.7
20260506024650 56 265 0.0 2.6 0.00 0.00 0.00 82 1008.7
20260506024552 57 265 0.0 2.6 0.00 0.00 0.00 82 1008.8
20260506024521 56 265 0.0 2.6 0.00 0.00 0.00 82 1007.8
20260506024446 56 265 0.0 2.6 0.00 0.00 0.00 82 1008.8
20260506024353 57 265 0.0 3.5 0.00 0.00 0.00 82 1008.8
20260506024257 57 265 0.0 4.3 0.00 0.00 0.00 82 1008.8
20260506024137 57 265 0.9 4.3 0.00 0.00 0.00 82 1008.8
20260506024101 56 265 0.9 4.3 0.00 0.00 0.00 82 1007.9
20260506024030 57 265 1.7 4.3 0.00 0.00 0.00 82 1008.8
20260506023933 57 265 1.7 4.3 0.00 0.00 0.00 82 1008.7
20260506023838 57 265 1.7 4.3 0.00 0.00 0.00 82 1008.7
20260506023701 57 265 2.6 6.1 0.00 0.00 0.00 82 1008.7
20260506023628 56 265 1.7 6.1 0.00 0.00 0.00 82 1007.8
20260506023555 57 265 2.6 6.1 0.00 0.00 0.00 82 1008.7
20260506023458 57 265 3.5 7.8 0.00 0.00 0.00 82 1008.7
20260506023400 57 265 3.5 7.8 0.00 0.00 0.00 82 1008.7
20260506023304 57 267 3.5 7.8 0.00 0.00 0.00 82 1008.7
20260506023152 57 266 3.5 7.8 0.00 0.00 0.00 82 1008.7
20260506023052 57 265 3.5 7.8 0.00 0.00 0.00 82 1008.7
20260506022959 57 268 3.5 7.8 0.00 0.00 0.00 82 1008.7
20260506022901 57 264 3.5 7.8 0.00 0.00 0.00 82 1008.7
20260506022735 57 264 4.3 7.8 0.00 0.00 0.00 82 1008.7
20260506022639 57 264 4.3 7.8 0.00 0.00 0.00 81 1008.7
20260506022517 57 263 4.3 7.8 0.00 0.00 0.00 81 1008.7
20260506022420 57 259 4.3 7.8 0.00 0.00 0.00 81 1008.7
20260506022314 57 272 5.2 8.7 0.00 0.00 0.00 81 1008.7
20260506022219 57 260 5.2 8.7 0.00 0.00 0.00 81 1008.7
20260506022056 57 262 4.3 8.7 0.00 0.00 0.00 81 1008.7
20260506021939 57 268 6.1 8.7 0.00 0.00 0.00 81 1008.7
20260506021831 58 261 7.0 8.7 0.00 0.00 0.00 82 1008.7
20260506021734 58 261 6.1 8.7 0.00 0.00 0.00 82 1008.7
20260506021636 58 267 6.1 8.7 0.00 0.00 0.00 82 1008.7
20260506021521 58 265 6.1 8.7 0.00 0.00 0.00 82 1008.7
20260506021415 58 261 6.1 8.7 0.00 0.00 0.00 82 1008.7
20260506021317 58 261 5.2 8.7 0.00 0.00 0.00 82 1008.7
20260506021158 58 257 6.1 8.7 0.00 0.00 0.00 82 1008.7
20260506021122 57 259 5.2 8.7 0.00 0.00 0.00 82 1007.7
20260506021030 58 263 7.0 8.7 0.00 0.00 0.00 82 1008.7
20260506020934 58 264 7.0 8.7 0.00 0.00 0.00 82 1008.7
20260506020841 57 250 7.0 9.6 0.00 0.00 0.00 82 1008.6
20260506020736 57 261 7.0 9.6 0.00 0.00 0.00 82 1008.7
20260506020639 57 244 7.0 9.6 0.00 0.00 0.00 82 1008.7
20260506020541 58 247 5.2 8.7 0.00 0.00 0.00 82 1008.7
20260506020444 58 274 4.3 7.0 0.00 0.00 0.00 82 1008.8
20260506020336 58 256 4.3 6.1 0.00 0.00 0.00 82 1008.7
20260506020215 58 257 3.5 6.1 0.00 0.00 0.00 82 1008.8
20260506020120 58 257 3.5 7.0 0.00 0.00 0.00 82 1008.8
20260506020020 58 259 3.5 7.0 0.00 0.00 0.00 81 1008.8
20260506015852 58 251 4.3 7.0 0.00 0.00 0.00 81 1008.8
20260506015755 58 247 4.3 7.0 0.00 0.00 0.00 81 1008.8
20260506015657 58 257 3.5 7.0 0.00 0.00 0.00 81 1008.8
20260506015600 58 257 3.5 7.0 0.00 0.00 0.00 81 1007.8
20260506015528 58 257 4.3 7.0 0.00 0.00 0.00 81 1008.7
20260506015414 58 257 4.3 7.0 0.00 0.00 0.00 81 1008.7
20260506015317 58 262 4.3 7.0 0.00 0.00 0.00 81 1008.7
20260506015220 58 262 4.3 7.0 0.00 0.00 0.00 81 1008.7
20260506015146 58 268 4.3 7.8 0.00 0.00 0.00 81 1007.8
20260506015113 58 261 5.2 7.8 0.00 0.00 0.00 81 1008.8
20260506015013 58 263 5.2 7.8 0.00 0.00 0.00 81 1008.7
20260506014854 58 268 4.3 7.8 0.00 0.00 0.00 81 1008.8
20260506014759 58 272 4.3 7.8 0.00 0.00 0.00 81 1008.7
20260506014636 59 265 5.2 7.8 0.00 0.00 0.00 80 1008.7
20260506014538 59 262 6.1 7.8 0.00 0.00 0.00 80 1008.7
20260506014420 59 270 6.1 8.7 0.00 0.00 0.00 80 1008.7
20260506014324 59 258 6.1 8.7 0.00 0.00 0.00 80 1008.7
20260506014229 59 268 6.1 8.7 0.00 0.00 0.00 80 1008.6
20260506014059 59 256 5.2 9.6 0.00 0.00 0.00 80 1008.6
20260506014005 59 263 6.1 10.4 0.00 0.00 0.00 80 1008.6
20260506013847 59 257 5.2 10.4 0.00 0.00 0.00 80 1008.5
20260506013740 59 271 6.1 10.4 0.00 0.00 0.00 80 1008.5
20260506013641 59 250 7.0 10.4 0.00 0.00 0.00 80 1008.6
20260506013543 59 268 6.1 10.4 0.00 0.00 0.00 80 1008.6
20260506013447 59 277 7.0 11.3 0.00 0.00 0.00 80 1008.6
20260506013319 59 257 8.7 11.3 0.00 0.00 0.00 80 1008.6
20260506013224 59 253 7.8 11.3 0.00 0.00 0.00 80 1008.5
20260506013105 59 277 7.0 11.3 0.00 0.00 0.00 79 1008.5
20260506012945 59 267 7.0 11.3 0.00 0.00 0.00 79 1008.5
20260506012710 59 269 8.7 13.0 0.00 0.00 0.00 79 1008.5
20260506012612 59 270 7.8 13.0 0.00 0.00 0.00 79 1008.5
20260506012517 59 268 7.8 13.0 0.00 0.00 0.00 79 1007.6
20260506012444 59 269 8.7 13.0 0.00 0.00 0.00 79 1008.5
20260506012331 59 257 7.8 13.9 0.00 0.00 0.00 79 1008.5
20260506012233 59 252 8.7 13.9 0.00 0.00 0.00 79 1008.5
20260506012126 59 274 8.7 13.9 0.00 0.00 0.00 79 1008.5
20260506012027 59 251 9.6 14.8 0.00 0.00 0.00 79 1008.4
20260506011910 60 274 10.4 14.8 0.00 0.00 0.00 79 1008.4
20260506011810 60 263 10.4 14.8 0.00 0.00 0.00 79 1008.4
20260506011720 60 266 10.4 14.8 0.00 0.00 0.00 79 1008.5
20260506011658 59 271 10.4 14.8 0.00 0.00 0.00 79 1007.5
20260506011611 60 273 10.4 14.8 0.00 0.00 0.00 79 1008.4
20260506011513 60 270 11.3 14.8 0.00 0.00 0.00 79 1008.4
20260506011355 60 259 11.3 14.8 0.00 0.00 0.00 79 1008.4
20260506011056 60 253 11.3 14.8 0.00 0.00 0.00 79 1008.3
20260506011000 59 259 11.3 13.9 0.00 0.00 0.00 79 1008.3
20260506010906 60 266 10.4 13.9 0.00 0.00 0.00 79 1008.3
20260506010800 60 257 10.4 13.9 0.00 0.00 0.00 79 1008.3
20260506010703 60 277 10.4 13.9 0.00 0.00 0.00 79 1008.3
20260506010604 60 258 10.4 13.9 0.00 0.00 0.00 79 1008.3
20260506010446 60 245 10.4 13.9 0.00 0.00 0.00 79 1008.3
20260506010318 60 268 9.6 14.8 0.00 0.00 0.00 79 1008.3
20260506010202 60 268 8.7 14.8 0.00 0.00 0.00 79 1008.3
20260506010105 60 253 8.7 14.8 0.00 0.00 0.00 79 1008.3
20260506010005 60 244 9.6 14.8 0.00 0.00 0.00 79 1008.3
20260506005901 60 258 10.4 14.8 0.00 0.00 0.00 79 1008.3
20260506005723 60 266 10.4 14.8 0.00 0.00 0.00 79 1008.3
20260506005455 60 257 8.7 14.8 0.00 0.00 0.00 79 1008.3
20260506005350 60 262 9.6 14.8 0.00 0.00 0.00 79 1008.3
20260506005231 60 245 10.4 14.8 0.00 0.00 0.00 79 1008.3
20260506005136 60 255 10.4 14.8 0.00 0.00 0.00 79 1008.3
20260506005051 59 264 10.4 14.8 0.00 0.00 0.00 79 1007.3
20260506005004 60 257 11.3 14.8 0.00 0.00 0.00 79 1008.3
20260506004906 60 263 9.6 14.8 0.00 0.00 0.00 79 1008.2
20260506004808 60 265 8.7 14.8 0.00 0.00 0.00 79 1008.2
20260506004714 60 240 8.7 14.8 0.00 0.00 0.00 80 1008.2
20260506004653 59 244 9.6 14.8 0.00 0.00 0.00 80 1007.2
20260506004607 60 247 9.6 15.6 0.00 0.00 0.00 80 1008.2
20260506004509 60 246 9.6 15.6 0.00 0.00 0.00 79 1008.2
20260506004412 60 265 9.6 15.6 0.00 0.00 0.00 79 1008.1
20260506004317 60 274 10.4 15.6 0.00 0.00 0.00 79 1008.1
20260506004147 60 272 11.3 15.6 0.00 0.00 0.00 79 1008.2
20260506004049 60 267 12.2 15.6 0.00 0.00 0.00 79 1008.2
20260506003956 60 245 11.3 15.6 0.00 0.00 0.00 79 1008.1
20260506003719 60 253 12.2 15.6 0.00 0.00 0.00 79 1008.0
20260506003623 60 257 11.3 14.8 0.00 0.00 0.00 79 1008.0
20260506003524 60 259 11.3 14.8 0.00 0.00 0.00 79 1008.0
20260506003357 60 246 12.2 14.8 0.00 0.00 0.00 79 1008.0
20260506003259 60 255 11.3 14.8 0.00 0.00 0.00 79 1008.0
20260506003206 60 261 11.3 15.6 0.00 0.00 0.00 79 1008.0
20260506003110 60 252 10.4 15.6 0.00 0.00 0.00 79 1007.9
20260506003046 60 271 10.4 15.6 0.00 0.00 0.00 79 1007.0
20260506003000 60 253 10.4 15.6 0.00 0.00 0.00 79 1008.0
20260506002903 60 253 11.3 15.6 0.00 0.00 0.00 79 1008.0
20260506002744 60 253 11.3 15.6 0.00 0.00 0.00 79 1008.0
20260506002648 60 252 9.6 15.6 0.00 0.00 0.00 79 1008.0
20260506002624 60 251 8.7 16.5 0.00 0.00 0.00 79 1007.0
20260506002544 60 245 9.6 16.5 0.00 0.00 0.00 79 1008.0
20260506002447 60 242 10.4 17.4 0.00 0.00 0.00 79 1008.0
20260506002330 60 254 9.6 17.4 0.00 0.00 0.00 79 1008.0
20260506002223 60 255 11.3 17.4 0.00 0.00 0.00 79 1008.0
20260506002100 60 238 11.3 17.4 0.00 0.00 0.00 79 1007.9
20260506002004 60 254 11.3 17.4 0.00 0.00 0.00 79 1007.9
20260506001910 61 249 13.0 17.4 0.00 0.00 0.00 79 1007.9
20260506001721 61 258 11.3 18.2 0.00 0.00 0.00 78 1007.9
20260506001623 61 248 12.2 20.9 0.00 0.00 0.00 78 1007.9
20260506001525 61 261 12.2 20.9 0.00 0.00 0.00 78 1007.9
20260506001429 61 271 12.2 20.9 0.00 0.00 0.00 78 1007.9
20260506001323 61 249 13.9 20.9 0.00 0.00 0.00 78 1007.8
20260506001145 61 279 13.0 20.9 0.00 0.00 0.00 78 1007.9
20260506001047 61 270 13.0 20.9 0.00 0.00 0.00 78 1007.9
20260506000949 61 253 15.6 20.9 0.00 0.00 0.00 78 1007.8
20260506000844 61 266 15.6 20.9 0.00 0.00 0.00 78 1007.8
20260506000747 61 286 14.8 20.0 0.00 0.00 0.00 77 1007.8
20260506000650 61 249 14.8 20.0 0.00 0.00 0.00 77 1007.8
20260506000552 61 267 14.8 20.0 0.00 0.00 0.00 77 1007.8
20260506000526 61 265 14.8 20.0 0.00 0.00 0.00 77 1006.8
20260506000431 61 257 15.6 20.0 0.00 0.00 0.00 77 1007.8
20260506000153 61 272 13.0 20.0 0.00 0.00 0.00 77 1007.8
20260506000053 61 249 13.0 20.0 0.00 0.00 0.00 76 1007.7
20260505235955 61 262 15.6 20.0 0.00 0.00 0.00 76 1007.7
20260505235837 62 265 15.6 20.9 0.00 0.00 0.00 76 1007.6
20260505235710 62 258 14.8 20.9 0.00 0.00 0.00 76 1007.6
20260505235616 62 265 13.9 20.9 0.00 0.00 0.00 76 1007.6
20260505235458 62 269 14.8 20.9 0.00 0.00 0.00 76 1007.5
20260505235401 62 249 15.6 20.9 0.00 0.00 0.00 76 1007.5
20260505235234 62 267 15.6 20.0 0.00 0.00 0.00 75 1007.5
20260505235135 62 274 15.6 19.1 0.00 0.00 0.00 75 1007.4
20260505235036 62 263 14.8 18.2 0.00 0.00 0.00 75 1007.4
20260505234943 62 255 13.9 18.2 0.00 0.00 0.00 75 1007.3
20260505234837 62 275 13.0 18.2 0.00 0.00 0.00 75 1007.3
20260505234609 62 257 12.2 17.4 0.00 0.00 0.00 75 1007.3
20260505234453 62 264 13.0 17.4 0.00 0.00 0.00 75 1007.3
20260505234302 62 260 13.0 17.4 0.00 0.00 0.00 75 1007.2
20260505234205 62 240 12.2 17.4 0.00 0.00 0.00 74 1007.1
20260505234112 62 263 10.4 17.4 0.00 0.00 0.00 74 1007.2
20260505234011 62 255 10.4 17.4 0.00 0.00 0.00 74 1007.1
20260505233902 62 284 11.3 17.4 0.00 0.00 0.00 74 1007.1
20260505233804 62 280 12.2 17.4 0.00 0.00 0.00 74 1007.1
20260505233708 62 274 13.0 16.5 0.00 0.00 0.00 74 1007.1
20260505233636 62 273 12.2 16.5 0.00 0.00 0.00 74 1006.2
20260505233559 62 279 13.0 16.5 0.00 0.00 0.00 74 1007.1
20260505233503 62 272 11.3 16.5 0.00 0.00 0.00 74 1007.1
20260505233410 62 264 10.4 16.5 0.00 0.00 0.00 74 1007.1
20260505233313 62 242 10.4 16.5 0.00 0.00 0.00 74 1007.0
20260505233217 62 270 11.3 16.5 0.00 0.00 0.00 74 1007.1
20260505233154 62 266 11.3 16.5 0.00 0.00 0.00 74 1006.1
20260505233109 62 265 9.6 16.5 0.00 0.00 0.00 74 1007.1
20260505233008 62 261 7.8 13.9 0.00 0.00 0.00 74 1007.0
20260505232910 62 249 7.0 13.9 0.00 0.00 0.00 74 1007.0
20260505232807 62 270 7.0 13.9 0.00 0.00 0.00 74 1007.0
20260505232711 62 284 8.7 13.9 0.00 0.00 0.00 74 1007.0
20260505232550 62 282 9.6 13.9 0.00 0.00 0.00 74 1007.0
20260505232455 62 250 9.6 13.9 0.00 0.00 0.00 74 1007.0
20260505232330 62 275 9.6 13.0 0.00 0.00 0.00 74 1007.0
20260505232231 62 281 9.6 13.0 0.00 0.00 0.00 74 1006.9
20260505232136 62 265 9.6 13.0 0.00 0.00 0.00 74 1006.9
20260505232110 62 254 8.7 13.0 0.00 0.00 0.00 74 1006.0
20260505232026 62 274 8.7 12.2 0.00 0.00 0.00 74 1006.9
20260505231908 62 276 7.8 12.2 0.00 0.00 0.00 74 1006.9
20260505231811 62 262 8.7 12.2 0.00 0.00 0.00 74 1006.8
20260505231715 62 270 8.7 13.0 0.00 0.00 0.00 74 1006.9
20260505231652 62 276 8.7 13.0 0.00 0.00 0.00 74 1005.8
20260505231607 62 288 8.7 13.0 0.00 0.00 0.00 74 1006.7
20260505231447 62 273 8.7 13.0 0.00 0.00 0.00 74 1006.7
20260505231333 62 255 8.7 13.9 0.00 0.00 0.00 74 1006.7
20260505231225 62 263 8.7 13.9 0.00 0.00 0.00 74 1006.7
20260505231125 62 274 8.7 13.9 0.00 0.00 0.00 74 1006.6
20260505231005 62 280 9.6 13.9 0.00 0.00 0.00 74 1006.7
20260505230847 62 282 9.6 13.9 0.00 0.00 0.00 74 1006.6
20260505230740 62 271 9.6 13.9 0.00 0.00 0.00 74 1006.6
20260505230649 62 279 10.4 13.9 0.00 0.00 0.00 73 1006.6
20260505230550 62 264 9.6 13.9 0.00 0.00 0.00 73 1006.6
20260505230454 62 248 8.7 13.9 0.00 0.00 0.00 73 1006.6
20260505230348 62 270 7.8 13.0 0.00 0.00 0.00 73 1006.5
20260505230230 62 266 8.7 13.0 0.00 0.00 0.00 73 1006.5
20260505230134 62 252 9.6 13.0 0.00 0.00 0.00 73 1006.5
20260505230105 62 268 9.6 13.0 0.00 0.00 0.00 73 1005.6
20260505230029 62 268 10.4 13.0 0.00 0.00 0.00 73 1006.5
20260505225911 62 272 8.7 12.2 0.00 0.00 0.00 73 1006.5
20260505225812 62 264 7.8 12.2 0.00 0.00 0.00 73 1006.4
20260505225656 62 278 8.7 12.2 0.00 0.00 0.00 73 1006.4
20260505225630 62 279 8.7 12.2 0.00 0.00 0.00 73 1005.5
20260505225548 62 268 9.6 12.2 0.00 0.00 0.00 73 1006.4
20260505225449 62 240 8.7 12.2 0.00 0.00 0.00 73 1006.5
20260505225351 62 247 8.7 12.2 0.00 0.00 0.00 73 1006.4
20260505225236 62 273 7.8 12.2 0.00 0.00 0.00 73 1006.4
20260505225130 62 244 7.0 11.3 0.00 0.00 0.00 73 1006.4
20260505225031 62 250 7.0 11.3 0.00 0.00 0.00 73 1006.4
20260505224914 62 254 7.8 11.3 0.00 0.00 0.00 73 1006.4
20260505224819 62 266 7.0 11.3 0.00 0.00 0.00 72 1006.4
20260505224651 62 245 7.8 11.3 0.00 0.00 0.00 72 1006.4
20260505224555 62 236 7.8 11.3 0.00 0.00 0.00 72 1006.4
20260505224459 62 252 7.8 9.6 0.00 0.00 0.00 72 1006.4
20260505224400 62 270 7.8 11.3 0.00 0.00 0.00 72 1006.3
20260505224253 62 276 6.1 11.3 0.00 0.00 0.00 72 1006.3
20260505224133 62 251 6.1 11.3 0.00 0.00 0.00 72 1006.3
20260505224034 62 251 7.0 11.3 0.00 0.00 0.00 72 1006.3
20260505223919 62 257 7.0 11.3 0.00 0.00 0.00 72 1006.2
20260505223814 62 246 6.1 11.3 0.00 0.00 0.00 72 1006.2
20260505223654 62 255 7.8 11.3 0.00 0.00 0.00 72 1006.2
20260505223555 62 255 7.8 11.3 0.00 0.00 0.00 72 1006.2
20260505223437 62 231 7.0 12.2 0.00 0.00 0.00 71 1006.1
20260505223328 62 266 7.8 12.2 0.00 0.00 0.00 71 1006.2
20260505223230 63 253 7.0 13.9 0.00 0.00 0.00 71 1006.2
20260505223115 63 238 7.0 13.9 0.00 0.00 0.00 71 1006.2
20260505222957 63 240 7.0 13.9 0.00 0.00 0.00 71 1006.2
20260505222850 63 235 8.7 13.9 0.00 0.00 0.00 71 1006.2
20260505222732 63 249 9.6 13.9 0.00 0.00 0.00 71 1006.2
20260505222635 63 251 8.7 13.9 0.00 0.00 0.00 71 1006.2
20260505222537 63 243 8.7 13.9 0.00 0.00 0.00 71 1006.2
20260505222517 62 259 8.7 13.9 0.00 0.00 0.00 71 1005.3
20260505222430 63 251 9.6 13.9 0.00 0.00 0.00 71 1006.2
20260505222335 62 249 9.6 13.0 0.00 0.00 0.00 71 1006.1
20260505222215 62 260 8.7 11.3 0.00 0.00 0.00 71 1006.1
20260505222117 62 251 8.7 11.3 0.00 0.00 0.00 71 1006.1
20260505222034 62 263 7.8 11.3 0.00 0.00 0.00 71 1005.1
20260505221951 62 252 9.6 12.2 0.00 0.00 0.00 71 1006.1
20260505221854 62 241 8.7 12.2 0.00 0.00 0.00 71 1006.1
20260505221757 62 259 9.6 12.2 0.00 0.00 0.00 71 1006.1
20260505221636 62 257 8.7 12.2 0.00 0.00 0.00 71 1006.0
20260505221537 62 234 8.7 13.0 0.00 0.00 0.00 71 1006.0
20260505221440 62 249 8.7 13.0 0.00 0.00 0.00 71 1006.0
20260505221335 62 243 8.7 13.0 0.00 0.00 0.00 71 1005.9
20260505221235 62 281 7.8 13.0 0.00 0.00 0.00 71 1005.9
20260505221117 62 247 7.8 13.0 0.00 0.00 0.00 71 1005.9
20260505221021 62 249 7.8 13.0 0.00 0.00 0.00 71 1005.9
20260505220854 62 249 8.7 13.0 0.00 0.00 0.00 71 1005.9
20260505220736 62 254 8.7 13.0 0.00 0.00 0.00 71 1006.0
20260505220618 62 252 8.7 12.2 0.00 0.00 0.00 71 1005.9
20260505220518 62 255 9.6 12.2 0.00 0.00 0.00 71 1005.9
20260505220351 62 240 7.8 12.2 0.00 0.00 0.00 71 1005.9
20260505220254 62 253 7.0 12.2 0.00 0.00 0.00 71 1005.9
20260505220156 62 249 7.0 12.2 0.00 0.00 0.00 71 1005.9
20260505220035 62 239 7.0 12.2 0.00 0.00 0.00 71 1005.9
20260505220022 62 262 7.0 12.2 0.00 0.00 0.00 71 1005.0
20260505215929 62 255 7.0 12.2 0.00 0.00 0.00 71 1005.9
20260505215833 62 271 7.8 13.0 0.00 0.00 0.00 71 1005.9
20260505215737 62 244 7.8 13.0 0.00 0.00 0.00 71 1005.8
20260505215641 62 244 7.8 13.0 0.00 0.00 0.00 71 1005.9
20260505215618 62 244 7.8 13.0 0.00 0.00 0.00 71 1005.0
20260505215537 62 240 8.7 13.0 0.00 0.00 0.00 71 1005.8
20260505215440 62 240 8.7 13.0 0.00 0.00 0.00 71 1005.8
20260505215343 62 233 8.7 13.0 0.00 0.00 0.00 71 1005.8
20260505215244 62 245 9.6 13.0 0.00 0.00 0.00 71 1005.8
20260505215138 63 245 8.7 13.9 0.00 0.00 0.00 70 1005.8
20260505214956 63 247 9.6 14.8 0.00 0.00 0.00 70 1005.8
20260505214858 63 254 9.6 14.8 0.00 0.00 0.00 70 1005.8
20260505214802 63 250 9.6 14.8 0.00 0.00 0.00 70 1005.8
20260505214634 63 246 9.6 14.8 0.00 0.00 0.00 70 1005.8
20260505214514 63 240 10.4 14.8 0.00 0.00 0.00 70 1005.8
20260505214355 63 247 11.3 14.8 0.00 0.00 0.00 70 1005.8
20260505214256 63 242 11.3 14.8 0.00 0.00 0.00 70 1005.7
20260505214147 63 242 10.4 14.8 0.00 0.00 0.00 70 1005.8
20260505214033 63 247 9.6 15.6 0.00 0.00 0.00 70 1005.7
20260505213935 63 240 9.6 15.6 0.00 0.00 0.00 70 1005.7
20260505213808 63 255 10.4 15.6 0.00 0.00 0.00 70 1005.7
20260505213709 63 248 10.4 15.6 0.00 0.00 0.00 70 1005.6
20260505213548 63 243 11.3 15.6 0.00 0.00 0.00 70 1005.7
20260505213518 62 247 11.3 15.6 0.00 0.00 0.00 70 1004.7
20260505213442 63 246 12.2 15.6 0.00 0.00 0.00 70 1005.7
20260505213348 63 251 12.2 15.6 0.00 0.00 0.00 70 1005.7
20260505213251 63 261 12.2 16.5 0.00 0.00 0.00 70 1005.6
20260505213047 62 249 10.4 17.4 0.00 0.00 0.00 69 1004.8
20260505213010 63 245 11.3 17.4 0.00 0.00 0.00 69 1005.7
20260505212910 63 257 12.2 17.4 0.00 0.00 0.00 69 1005.6
20260505212752 63 249 11.3 17.4 0.00 0.00 0.00 69 1005.6
20260505212655 63 231 10.4 17.4 0.00 0.00 0.00 69 1005.6
20260505212601 63 250 11.3 17.4 0.00 0.00 0.00 69 1005.6
20260505212538 63 258 11.3 17.4 0.00 0.00 0.00 69 1004.7
20260505212432 63 240 13.0 17.4 0.00 0.00 0.00 69 1005.6
20260505212332 63 249 11.3 17.4 0.00 0.00 0.00 69 1005.6
20260505212234 63 263 11.3 17.4 0.00 0.00 0.00 69 1005.7
20260505212115 63 247 13.0 17.4 0.00 0.00 0.00 69 1005.6
20260505212040 63 251 12.2 17.4 0.00 0.00 0.00 69 1004.7
20260505212006 63 255 12.2 17.4 0.00 0.00 0.00 69 1005.6
20260505211910 63 251 11.3 18.2 0.00 0.00 0.00 68 1005.6
20260505211818 63 236 11.3 18.2 0.00 0.00 0.00 68 1005.6
20260505211700 63 248 11.3 19.1 0.00 0.00 0.00 68 1005.5
20260505211624 63 271 11.3 19.1 0.00 0.00 0.00 68 1004.6
20260505211550 63 246 12.2 19.1 0.00 0.00 0.00 68 1005.5
20260505211450 63 243 12.2 20.9 0.00 0.00 0.00 68 1005.5
20260505211354 63 240 12.2 20.9 0.00 0.00 0.00 68 1005.5
20260505211254 63 252 12.2 20.9 0.00 0.00 0.00 68 1005.5
20260505211132 63 226 13.0 20.0 0.00 0.00 0.00 68 1005.5
20260505211034 63 217 13.9 20.0 0.00 0.00 0.00 68 1005.5
20260505210937 63 221 13.9 20.0 0.00 0.00 0.00 68 1005.5
20260505210831 63 249 14.8 20.0 0.00 0.00 0.00 68 1005.5
20260505210734 63 251 15.6 20.0 0.00 0.00 0.00 68 1005.5
20260505210615 63 233 15.6 20.9 0.00 0.00 0.00 68 1005.5
20260505210518 63 234 14.8 20.0 0.00 0.00 0.00 68 1004.6
20260505210431 63 247 14.8 20.0 0.00 0.00 0.00 68 1005.5
20260505210333 64 288 14.8 20.0 0.00 0.00 0.00 68 1005.4
20260505210235 63 240 14.8 21.7 0.00 0.00 0.00 68 1005.5
20260505210129 63 243 15.6 21.7 0.00 0.00 0.00 68 1005.5
20260505205948 64 244 14.8 21.7 0.00 0.00 0.00 68 1005.4
20260505205850 64 258 14.8 21.7 0.00 0.00 0.00 68 1005.4
20260505205756 64 238 14.8 21.7 0.00 0.00 0.00 68 1005.4
20260505205700 64 240 15.6 22.6 0.00 0.00 0.00 68 1005.4
20260505205632 63 246 14.8 22.6 0.00 0.00 0.00 68 1004.5
20260505205551 64 242 13.9 22.6 0.00 0.00 0.00 68 1005.4
20260505205453 64 255 13.9 22.6 0.00 0.00 0.00 68 1005.4
20260505205355 64 242 13.9 22.6 0.00 0.00 0.00 68 1005.4
20260505205249 64 237 14.8 22.6 0.00 0.00 0.00 68 1005.4
20260505205130 64 216 14.8 22.6 0.00 0.00 0.00 68 1005.3
20260505205013 64 265 14.8 22.6 0.00 0.00 0.00 68 1005.4
20260505204916 64 254 16.5 22.6 0.00 0.00 0.00 68 1005.4
20260505204810 64 213 14.8 20.0 0.00 0.00 0.00 68 1005.3
20260505204714 64 255 13.0 21.7 0.00 0.00 0.00 67 1005.4
20260505204615 64 247 14.8 21.7 0.00 0.00 0.00 67 1005.2
20260505204436 64 248 13.0 21.7 0.00 0.00 0.00 67 1005.3
20260505204334 64 245 14.8 21.7 0.00 0.00 0.00 67 1005.4
20260505204213 64 253 14.8 21.7 0.00 0.00 0.00 67 1005.3
20260505204116 64 228 14.8 21.7 0.00 0.00 0.00 67 1005.3
20260505204017 64 250 16.5 21.7 0.00 0.00 0.00 67 1005.3
20260505203909 64 240 14.8 22.6 0.00 0.00 0.00 67 1005.3
20260505203811 64 248 13.0 22.6 0.00 0.00 0.00 66 1005.3
20260505203715 64 251 13.9 22.6 0.00 0.00 0.00 66 1005.3
20260505203622 64 245 14.8 22.6 0.00 0.00 0.00 66 1005.3
20260505203556 64 245 14.8 22.6 0.00 0.00 0.00 66 1004.4
20260505203513 64 251 14.8 22.6 0.00 0.00 0.00 66 1005.3
20260505203356 64 224 13.9 22.6 0.00 0.00 0.00 66 1005.2
20260505203258 64 257 14.8 22.6 0.00 0.00 0.00 66 1005.2
20260505203159 64 232 14.8 22.6 0.00 0.00 0.00 65 1005.2
20260505203134 64 251 14.8 22.6 0.00 0.00 0.00 65 1004.3
20260505203049 64 243 15.6 22.6 0.00 0.00 0.00 65 1005.1
20260505202936 65 253 16.5 22.6 0.00 0.00 0.00 65 1005.2
20260505202830 65 251 15.6 23.5 0.00 0.00 0.00 65 1005.2
20260505202712 65 254 14.8 20.9 0.00 0.00 0.00 65 1005.2
20260505202615 65 260 16.5 20.9 0.00 0.00 0.00 64 1005.1
20260505202515 65 253 15.6 20.9 0.00 0.00 0.00 64 1005.2
20260505202345 65 247 13.9 20.9 0.00 0.00 0.00 63 1005.1
20260505202251 65 219 13.9 20.9 0.00 0.00 0.00 63 1005.1
20260505202152 65 270 13.9 20.9 0.00 0.00 0.00 63 1005.1
20260505202053 65 233 14.8 20.9 0.00 0.00 0.00 63 1005.1
20260505202025 65 227 14.8 21.7 0.00 0.00 0.00 63 1004.2
20260505201948 65 247 15.6 21.7 0.00 0.00 0.00 62 1005.1
20260505201852 65 240 15.6 21.7 0.00 0.00 0.00 62 1005.0
20260505201756 66 253 15.6 21.7 0.00 0.00 0.00 62 1005.0
20260505201634 66 249 13.9 21.7 0.00 0.00 0.00 61 1005.0
20260505201536 66 226 14.8 21.7 0.00 0.00 0.00 61 1005.0
20260505201439 66 243 14.8 21.7 0.00 0.00 0.00 61 1005.0
20260505201341 66 236 14.8 21.7 0.00 0.00 0.00 61 1005.0
20260505201234 66 243 15.6 21.7 0.00 0.00 0.00 60 1005.0
20260505201137 66 240 14.8 20.0 0.00 0.00 0.00 60 1005.0
20260505201037 66 246 13.9 20.0 0.00 0.00 0.00 59 1005.0
20260505200924 66 223 13.9 20.0 0.00 0.00 0.00 59 1005.0
20260505200817 66 261 14.8 20.0 0.00 0.00 0.00 59 1004.9
20260505200720 67 226 14.8 20.0 0.00 0.00 0.00 59 1004.9
20260505200621 67 231 13.9 20.0 0.00 0.00 0.00 58 1004.9
20260505200551 66 247 13.9 20.0 0.00 0.00 0.00 58 1004.1
20260505200512 67 259 15.6 20.0 0.00 0.00 0.00 58 1004.9
20260505200332 67 250 13.9 20.0 0.00 0.00 0.00 57 1004.9
20260505200239 67 250 13.0 17.4 0.00 0.00 0.00 56 1004.9
20260505200121 67 229 13.0 17.4 0.00 0.00 0.00 56 1004.9
20260505200054 66 252 12.2 17.4 0.00 0.00 0.00 56 1004.0
20260505200010 67 243 12.2 17.4 0.00 0.00 0.00 55 1004.9
20260505195852 67 270 12.2 17.4 0.00 0.00 0.00 55 1004.9
20260505195734 67 250 11.3 17.4 0.00 0.00 0.00 54 1004.9
20260505195659 67 264 10.4 17.4 0.00 0.00 0.00 54 1003.9
20260505195626 67 245 12.2 17.4 0.00 0.00 0.00 53 1004.8
20260505195526 68 255 13.9 17.4 0.00 0.00 0.00 53 1004.8
20260505195412 68 249 13.0 17.4 0.00 0.00 0.00 52 1004.8
20260505195315 68 252 13.0 17.4 0.00 0.00 0.00 51 1004.8
20260505195205 68 252 12.2 17.4 0.00 0.00 0.00 50 1004.8
20260505195108 68 264 10.4 17.4 0.00 0.00 0.00 49 1004.8
20260505195009 68 245 10.4 15.6 0.00 0.00 0.00 48 1004.7
20260505194912 68 248 11.3 15.6 0.00 0.00 0.00 48 1004.7
20260505194807 68 266 11.3 15.6 0.00 0.00 0.00 48 1004.7
20260505194709 68 271 10.4 13.9 0.00 0.00 0.00 47 1004.6
20260505194612 68 263 9.6 13.9 0.00 0.00 0.00 48 1004.6
20260505194513 68 260 10.4 13.9 0.00 0.00 0.00 48 1004.5
20260505194346 68 267 10.4 13.9 0.00 0.00 0.00 48 1004.6
20260505194226 68 249 10.4 13.9 0.00 0.00 0.00 48 1004.4
20260505194108 68 253 9.6 13.9 0.00 0.00 0.00 48 1004.3
20260505194014 68 243 8.7 12.2 0.00 0.00 0.00 48 1004.2
20260505193907 68 263 7.8 10.4 0.00 0.00 0.00 48 1004.1
20260505193749 68 246 8.7 10.4 0.00 0.00 0.00 48 1004.1
20260505193652 67 233 7.8 10.4 0.00 0.00 0.00 49 1004.1
20260505193552 67 240 7.0 9.6 0.00 0.00 0.00 49 1004.0
20260505193527 67 234 6.1 7.8 0.00 0.00 0.00 49 1003.1
20260505193446 67 249 7.0 8.7 0.00 0.00 0.00 49 1004.0
20260505193353 67 236 7.0 8.7 0.00 0.00 0.00 49 1004.0
20260505193256 67 249 7.0 8.7 0.00 0.00 0.00 49 1004.0
20260505193016 67 231 6.1 8.7 0.00 0.00 0.00 49 1003.9
20260505192920 67 253 7.0 8.7 0.00 0.00 0.00 49 1003.9
20260505192823 67 251 6.1 8.7 0.00 0.00 0.00 48 1003.9
20260505192716 67 261 4.3 7.0 0.00 0.00 0.00 48 1003.8
20260505192623 68 253 4.3 7.0 0.00 0.00 0.00 48 1003.8
20260505192524 68 247 4.3 7.0 0.00 0.00 0.00 48 1003.8
20260505192427 68 240 4.3 7.0 0.00 0.00 0.00 47 1003.8
20260505192301 68 245 4.3 5.2 0.00 0.00 0.00 47 1003.7
20260505192143 68 240 3.5 5.2 0.00 0.00 0.00 47 1003.8
20260505192045 68 238 3.5 5.2 0.00 0.00 0.00 47 1003.8
20260505191948 69 243 3.5 5.2 0.00 0.00 0.00 47 1003.8
20260505191845 69 243 2.6 5.2 0.00 0.00 0.00 47 1003.7
20260505191748 69 249 3.5 6.1 0.00 0.00 0.00 46 1003.7
20260505191651 69 241 3.5 6.1 0.00 0.00 0.00 46 1003.7
20260505191550 69 240 3.5 6.1 0.00 0.00 0.00 46 1003.7
20260505191532 69 244 2.6 6.1 0.00 0.00 0.00 46 1002.8
20260505191445 69 258 2.6 6.1 0.00 0.00 0.00 46 1003.7
20260505191347 70 251 3.5 6.1 0.00 0.00 0.00 45 1003.7
20260505191233 70 257 3.5 6.1 0.00 0.00 0.00 45 1003.7
20260505191136 70 261 3.5 7.0 0.00 0.00 0.00 45 1003.7
20260505191102 70 261 3.5 7.0 0.00 0.00 0.00 45 1002.8
20260505191028 70 255 4.3 7.0 0.00 0.00 0.00 44 1003.7
20260505190930 70 228 4.3 7.0 0.00 0.00 0.00 45 1003.7
20260505190811 70 272 3.5 7.8 0.00 0.00 0.00 44 1003.6
20260505190653 71 259 3.5 7.8 0.00 0.00 0.00 44 1003.6
20260505190624 70 259 3.5 7.8 0.00 0.00 0.00 44 1002.7
20260505190529 71 259 4.3 7.8 0.00 0.00 0.00 44 1003.7
20260505190433 71 234 5.2 7.8 0.00 0.00 0.00 44 1003.6
20260505190337 71 230 5.2 7.8 0.00 0.00 0.00 44 1003.7
20260505190231 71 249 5.2 7.8 0.00 0.00 0.00 44 1003.6
20260505190113 71 230 5.2 7.8 0.00 0.00 0.00 44 1003.6
20260505190014 71 221 6.1 7.8 0.00 0.00 0.00 44 1003.6
20260505185907 71 222 5.2 7.8 0.00 0.00 0.00 44 1003.6
20260505185813 71 227 5.2 7.8 0.00 0.00 0.00 44 1003.6
20260505185716 71 247 5.2 7.8 0.00 0.00 0.00 43 1003.6
20260505185617 71 230 5.2 7.8 0.00 0.00 0.00 43 1003.5
20260505185542 71 243 4.3 7.8 0.00 0.00 0.00 43 1002.7
20260505185447 71 225 4.3 8.7 0.00 0.00 0.00 43 1003.5
20260505185330 71 235 4.3 8.7 0.00 0.00 0.00 43 1003.5
20260505185232 71 222 3.5 8.7 0.00 0.00 0.00 43 1003.5
20260505185109 71 221 3.5 8.7 0.00 0.00 0.00 43 1003.5
20260505185009 71 222 4.3 8.7 0.00 0.00 0.00 43 1003.6
20260505184912 71 217 4.3 8.7 0.00 0.00 0.00 43 1003.5
20260505184816 71 210 5.2 13.0 0.00 0.00 0.00 43 1003.5
20260505184710 71 215 5.2 13.0 0.00 0.00 0.00 43 1003.5
20260505184531 72 220 4.3 13.9 0.00 0.00 0.00 42 1003.5
20260505184439 71 217 5.2 13.9 0.00 0.00 0.00 43 1003.4
20260505184332 72 218 4.3 13.9 0.00 0.00 0.00 43 1003.5
20260505184233 72 193 4.3 13.9 0.00 0.00 0.00 42 1003.5
20260505184136 72 215 7.8 13.9 0.00 0.00 0.00 43 1003.5
20260505184016 72 249 7.8 13.9 0.00 0.00 0.00 42 1003.5
20260505183909 72 235 7.0 13.9 0.00 0.00 0.00 42 1003.5
20260505183755 72 218 7.0 13.9 0.00 0.00 0.00 42 1003.7
20260505183636 72 246 6.1 12.2 0.00 0.00 0.00 43 1003.5
20260505183538 72 219 6.1 12.2 0.00 0.00 0.00 42 1003.5
20260505183411 72 246 4.3 12.2 0.00 0.00 0.00 42 1003.4
20260505183313 72 226 3.5 12.2 0.00 0.00 0.00 43 1003.4
20260505183210 72 218 6.1 12.2 0.00 0.00 0.00 42 1003.4
20260505183113 72 225 7.0 12.2 0.00 0.00 0.00 42 1003.4
20260505183046 71 225 6.1 12.2 0.00 0.00 0.00 42 1002.5
20260505183008 72 237 5.2 12.2 0.00 0.00 0.00 42 1003.4
20260505182912 72 238 5.2 7.8 0.00 0.00 0.00 42 1003.4
20260505182815 72 230 5.2 7.8 0.00 0.00 0.00 42 1003.4
20260505182718 72 237 5.2 7.8 0.00 0.00 0.00 42 1003.5
20260505182651 72 226 4.3 8.7 0.00 0.00 0.00 42 1002.4
20260505182611 72 242 5.2 8.7 0.00 0.00 0.00 42 1003.4
20260505182511 72 232 5.2 8.7 0.00 0.00 0.00 42 1003.4
20260505182355 72 216 5.2 8.7 0.00 0.00 0.00 42 1003.4
20260505182235 72 270 6.1 8.7 0.00 0.00 0.00 42 1003.4
20260505182129 73 230 5.2 8.7 0.00 0.00 0.00 42 1003.4
20260505182009 73 224 6.1 8.7 0.00 0.00 0.00 41 1003.4
20260505181912 73 229 6.1 8.7 0.00 0.00 0.00 42 1003.4
20260505181816 73 203 4.3 8.7 0.00 0.00 0.00 41 1003.3
20260505181649 73 226 4.3 7.8 0.00 0.00 0.00 41 1003.3
20260505181553 73 230 4.3 7.8 0.00 0.00 0.00 41 1003.3
20260505181433 73 207 4.3 7.8 0.00 0.00 0.00 41 1003.2
20260505181336 73 224 4.3 7.8 0.00 0.00 0.00 41 1003.2
20260505181227 73 224 5.2 7.8 0.00 0.00 0.00 41 1003.2
20260505181130 74 202 5.2 7.8 0.00 0.00 0.00 40 1003.2
20260505180948 74 220 4.3 8.7 0.00 0.00 0.00 41 1003.3
20260505180856 74 238 4.3 8.7 0.00 0.00 0.00 41 1003.2
20260505180749 74 230 5.2 10.4 0.00 0.00 0.00 40 1003.2
20260505180654 74 223 5.2 10.4 0.00 0.00 0.00 40 1003.2
20260505180554 74 189 4.3 10.4 0.00 0.00 0.00 40 1003.2
20260505180437 74 214 3.5 10.4 0.00 0.00 0.00 40 1003.2
20260505180332 74 218 4.3 10.4 0.00 0.00 0.00 40 1003.1
20260505180232 74 208 4.3 10.4 0.00 0.00 0.00 40 1003.1
20260505180140 74 228 5.2 10.4 0.00 0.00 0.00 39 1003.2
20260505180041 74 180 6.1 10.4 0.00 0.00 0.00 39 1003.2
20260505180013 74 227 6.1 10.4 0.00 0.00 0.00 39 1002.2
20260505175935 74 206 6.1 10.4 0.00 0.00 0.00 39 1003.3
20260505175836 75 207 3.5 7.8 0.00 0.00 0.00 39 1003.2
20260505175657 75 226 2.6 7.8 0.00 0.00 0.00 39 1003.1
20260505175557 75 210 3.5 7.8 0.00 0.00 0.00 39 1003.2
20260505175536 74 210 3.5 7.8 0.00 0.00 0.00 39 1002.3
20260505175434 75 229 4.3 7.8 0.00 0.00 0.00 39 1003.2
20260505175337 75 172 4.3 8.7 0.00 0.00 0.00 39 1003.2
20260505175229 75 197 3.5 8.7 0.00 0.00 0.00 39 1003.2
20260505175133 75 190 4.3 8.7 0.00 0.00 0.00 39 1003.2
20260505175034 75 218 5.2 8.7 0.00 0.00 0.00 38 1003.2
20260505174933 75 204 4.3 8.7 0.00 0.00 0.00 38 1003.2
20260505174809 76 212 4.3 8.7 0.00 0.00 0.00 38 1003.3
20260505174712 76 197 5.2 8.7 0.00 0.00 0.00 38 1003.2
20260505174616 76 195 5.2 8.7 0.00 0.00 0.00 38 1003.3
20260505174517 76 221 5.2 9.6 0.00 0.00 0.00 38 1003.2
20260505174411 76 191 5.2 9.6 0.00 0.00 0.00 38 1003.2
20260505174254 76 210 5.2 8.7 0.00 0.00 0.00 38 1003.2
20260505174154 76 232 5.2 8.7 0.00 0.00 0.00 37 1003.2
20260505174059 76 204 5.2 8.7 0.00 0.00 0.00 37 1003.1
20260505174024 76 199 4.3 8.7 0.00 0.00 0.00 37 1002.2
20260505173931 77 222 4.3 8.7 0.00 0.00 0.00 37 1003.2
20260505173833 77 203 5.2 8.7 0.00 0.00 0.00 38 1003.2
20260505173736 77 245 4.3 8.7 0.00 0.00 0.00 37 1003.2
20260505173639 77 222 4.3 8.7 0.00 0.00 0.00 37 1003.2
20260505173543 76 237 3.5 8.7 0.00 0.00 0.00 37 1002.3
20260505173510 77 187 3.5 8.7 0.00 0.00 0.00 38 1003.2
20260505173335 77 220 2.6 7.0 0.00 0.00 0.00 37 1003.2
20260505173235 77 216 2.6 7.8 0.00 0.00 0.00 37 1003.1
20260505173145 77 227 2.6 7.8 0.00 0.00 0.00 37 1002.2
20260505173108 77 193 3.5 7.8 0.00 0.00 0.00 37 1003.2
20260505173008 77 211 4.3 8.7 0.00 0.00 0.00 37 1003.1
20260505172911 77 189 3.5 8.7 0.00 0.00 0.00 37 1003.2
20260505172815 77 193 2.6 8.7 0.00 0.00 0.00 37 1003.1
20260505172632 77 225 3.5 8.7 0.00 0.00 0.00 37 1003.0
20260505172534 77 220 4.3 8.7 0.00 0.00 0.00 37 1003.1
20260505172502 77 228 4.3 8.7 0.00 0.00 0.00 36 1002.2
20260505172427 77 230 4.3 8.7 0.00 0.00 0.00 36 1003.2
20260505172308 77 228 4.3 8.7 0.00 0.00 0.00 37 1003.2
20260505172210 78 191 4.3 9.6 0.00 0.00 0.00 37 1003.1
20260505172111 78 198 2.6 7.8 0.00 0.00 0.00 36 1003.1
20260505172021 77 218 2.6 7.8 0.00 0.00 0.00 36 1002.2
20260505171948 78 214 4.3 7.8 0.00 0.00 0.00 36 1003.1
20260505171850 78 215 4.3 7.8 0.00 0.00 0.00 36 1003.1
20260505171754 78 224 4.3 7.8 0.00 0.00 0.00 36 1003.1
20260505171657 78 203 3.5 7.8 0.00 0.00 0.00 36 1003.1
20260505171622 77 197 3.5 7.8 0.00 0.00 0.00 36 1002.2
20260505171419 78 218 2.6 7.8 0.00 0.00 0.00 36 1003.1
20260505171322 78 193 1.7 7.8 0.00 0.00 0.00 36 1003.1
20260505171226 78 209 2.6 7.8 0.00 0.00 0.00 36 1003.1
20260505171158 77 187 2.6 7.8 0.00 0.00 0.00 36 1002.2
20260505171120 78 172 4.3 7.8 0.00 0.00 0.00 36 1003.1
20260505171022 78 203 4.3 7.8 0.00 0.00 0.00 36 1003.2
20260505170906 78 227 3.5 7.8 0.00 0.00 0.00 36 1003.2
20260505170810 78 168 3.5 7.8 0.00 0.00 0.00 36 1003.1
20260505170703 78 209 3.5 7.8 0.00 0.00 0.00 36 1003.2
20260505170607 78 218 2.6 6.1 0.00 0.00 0.00 36 1003.1
20260505170513 78 211 2.6 6.1 0.00 0.00 0.00 37 1003.1
20260505170415 78 195 3.5 9.6 0.00 0.00 0.00 37 1003.1
20260505170308 78 210 3.5 9.6 0.00 0.00 0.00 35 1003.2
20260505170209 78 207 3.5 9.6 0.00 0.00 0.00 35 1003.1
20260505170110 78 178 2.6 9.6 0.00 0.00 0.00 36 1003.2
20260505165833 78 168 2.6 9.6 0.00 0.00 0.00 35 1003.3
20260505165739 78 224 3.5 9.6 0.00 0.00 0.00 35 1003.2
20260505165643 78 197 4.3 9.6 0.00 0.00 0.00 35 1003.3
20260505165543 78 227 4.3 6.1 0.00 0.00 0.00 35 1003.3
20260505165526 78 216 3.5 6.1 0.00 0.00 0.00 35 1002.3
20260505165437 78 207 3.5 6.1 0.00 0.00 0.00 35 1003.3
20260505165338 78 219 1.7 7.0 0.00 0.00 0.00 35 1003.3
20260505165158 78 216 1.7 7.0 0.00 0.00 0.00 36 1003.3
20260505165120 78 216 1.7 7.0 0.00 0.00 0.00 36 1002.3
20260505165033 78 216 1.7 7.8 0.00 0.00 0.00 36 1003.3
20260505164936 78 213 2.6 10.4 0.00 0.00 0.00 35 1003.3
20260505164839 78 215 4.3 10.4 0.00 0.00 0.00 35 1003.3
20260505164710 78 230 4.3 10.4 0.00 0.00 0.00 35 1003.3
20260505164612 78 234 4.3 10.4 0.00 0.00 0.00 35 1003.3
20260505164452 78 213 4.3 10.4 0.00 0.00 0.00 34 1003.3
20260505164359 78 176 4.3 10.4 0.00 0.00 0.00 34 1003.3
20260505164304 78 182 5.2 10.4 0.00 0.00 0.00 34 1003.3
20260505164147 79 240 5.2 10.4 0.00 0.00 0.00 34 1003.3
20260505164049 79 181 4.3 8.7 0.00 0.00 0.00 34 1003.3
20260505163952 79 202 3.5 8.7 0.00 0.00 0.00 34 1003.2
20260505163853 79 213 4.3 8.7 0.00 0.00 0.00 35 1003.3
20260505163747 79 222 4.3 7.8 0.00 0.00 0.00 34 1003.3
20260505163654 79 166 4.3 12.2 0.00 0.00 0.00 34 1003.2
20260505163556 79 199 4.3 12.2 0.00 0.00 0.00 33 1003.3
20260505163458 79 210 4.3 12.2 0.00 0.00 0.00 33 1003.3
20260505163352 79 202 5.2 12.2 0.00 0.00 0.00 34 1003.3
20260505163255 80 220 5.2 12.2 0.00 0.00 0.00 34 1003.3
20260505163157 80 230 4.3 12.2 0.00 0.00 0.00 33 1003.3
20260505163102 80 189 4.3 12.2 0.00 0.00 0.00 33 1003.3
20260505162945 80 208 7.0 12.2 0.00 0.00 0.00 33 1003.3
20260505162816 80 222 7.0 13.9 0.00 0.00 0.00 34 1003.2
20260505162718 80 245 6.1 12.2 0.00 0.00 0.00 34 1003.3
20260505162518 80 201 4.3 12.2 0.00 0.00 0.00 34 1002.4
20260505162441 80 235 4.3 12.2 0.00 0.00 0.00 34 1003.3
20260505162343 80 218 6.1 12.2 0.00 0.00 0.00 34 1003.3
20260505162227 80 236 7.0 12.2 0.00 0.00 0.00 33 1003.3
20260505162131 80 213 6.1 12.2 0.00 0.00 0.00 34 1003.3
20260505162056 80 241 5.2 11.3 0.00 0.00 0.00 34 1002.4
20260505162020 80 206 4.3 9.6 0.00 0.00 0.00 33 1003.3
20260505161903 80 180 6.1 9.6 0.00 0.00 0.00 34 1003.4
20260505161745 80 221 5.2 11.3 0.00 0.00 0.00 35 1003.3
20260505161628 80 223 5.2 11.3 0.00 0.00 0.00 34 1003.3
20260505161534 80 218 5.2 11.3 0.00 0.00 0.00 34 1002.4
20260505161457 80 196 6.1 11.3 0.00 0.00 0.00 33 1003.4
20260505161343 80 202 6.1 11.3 0.00 0.00 0.00 34 1003.4
20260505161246 80 218 6.1 11.3 0.00 0.00 0.00 35 1003.4
20260505161147 80 234 6.1 11.3 0.00 0.00 0.00 34 1003.5
20260505161026 80 232 4.3 8.7 0.00 0.00 0.00 36 1003.4
20260505161005 80 232 4.3 8.7 0.00 0.00 0.00 35 1002.5
20260505160921 80 214 5.2 8.7 0.00 0.00 0.00 35 1003.4
20260505160656 80 213 6.1 9.6 0.00 0.00 0.00 33 1003.4
20260505160621 79 224 6.1 9.6 0.00 0.00 0.00 33 1002.5
20260505160532 80 251 6.1 9.6 0.00 0.00 0.00 34 1003.5
20260505160435 80 218 4.3 9.6 0.00 0.00 0.00 34 1003.5
20260505160316 80 210 3.5 9.6 0.00 0.00 0.00 33 1003.4
20260505160208 80 209 4.3 9.6 0.00 0.00 0.00 33 1003.5
20260505160109 80 194 6.1 9.6 0.00 0.00 0.00 33 1003.5
20260505153259 81 217 7.0 17.4 0.00 0.00 0.00 32 1003.7
20260505153200 81 202 7.0 17.4 0.00 0.00 0.00 32 1003.7
20260505153101 81 218 6.1 17.4 0.00 0.00 0.00 32 1003.6
20260505153008 81 235 6.1 17.4 0.00 0.00 0.00 31 1003.6
20260505152902 82 213 6.1 18.2 0.00 0.00 0.00 31 1003.7
20260505152743 82 209 9.6 18.2 0.00 0.00 0.00 31 1003.7
20260505152644 82 240 10.4 18.2 0.00 0.00 0.00 31 1003.7
20260505152523 82 238 7.8 18.2 0.00 0.00 0.00 31 1003.7
20260505152356 82 212 9.6 18.2 0.00 0.00 0.00 31 1003.7
20260505152305 82 239 10.4 18.2 0.00 0.00 0.00 31 1003.7
20260505152204 82 244 12.2 18.2 0.00 0.00 0.00 31 1003.8
20260505152106 83 192 13.0 18.2 0.00 0.00 0.00 31 1003.9
20260505152033 82 230 11.3 18.2 0.00 0.00 0.00 31 1002.7
20260505151937 83 238 9.6 14.8 0.00 0.00 0.00 32 1003.7
20260505151840 83 182 8.7 14.8 0.00 0.00 0.00 33 1003.7
20260505151719 82 236 7.0 14.8 0.00 0.00 0.00 32 1003.8
20260505151622 82 182 6.1 14.8 0.00 0.00 0.00 32 1003.7
20260505151552 82 208 6.1 14.8 0.00 0.00 0.00 32 1002.9
20260505151517 82 236 7.0 14.8 0.00 0.00 0.00 33 1003.8
20260505151359 82 210 8.7 14.8 0.00 0.00 0.00 33 1003.7
20260505151301 81 228 8.7 13.9 0.00 0.00 0.00 33 1003.7
20260505151143 81 235 7.8 13.0 0.00 0.00 0.00 32 1003.8
20260505151113 81 236 7.0 13.0 0.00 0.00 0.00 32 1002.9
20260505151034 81 205 7.0 13.0 0.00 0.00 0.00 34 1003.8
20260505150914 81 205 7.0 12.2 0.00 0.00 0.00 34 1003.8
20260505150759 80 216 4.3 7.8 0.00 0.00 0.00 34 1003.8
20260505150700 80 210 4.3 7.0 0.00 0.00 0.00 34 1003.7
20260505150631 80 231 4.3 7.0 0.00 0.00 0.00 34 1002.8
20260505150530 80 242 2.6 6.1 0.00 0.00 0.00 33 1003.8
20260505150435 80 140 2.6 8.7 0.00 0.00 0.00 34 1003.8
20260505150327 80 216 2.6 8.7 0.00 0.00 0.00 34 1003.8
20260505150207 80 197 1.7 9.6 0.00 0.00 0.00 35 1003.8
20260505150115 80 197 3.5 9.6 0.00 0.00 0.00 34 1003.8